Time,TemperatureF,DewpointF,PressureIn,WindDirection,WindDirectionDegrees,WindSpeedMPH,WindSpeedGustMPH,Humidity,HourlyPrecipIn,Conditions,Clouds,dailyrainin,SoftwareType,DateUTC
2013-03-03 00:00:00,54.7,12.0,29.94,West,270,9.6,13.4,18,0.00,,---,0.00,VWS V14.00,2013-03-03 08:00:00,
2013-03-03 00:03:00,54.5,11.9,29.94,West,270,10.1,10.1,18,0.00,,---,0.00,VWS V14.00,2013-03-03 08:03:00,
2013-03-03 00:04:00,54.5,11.9,29.94,West,270,10.1,10.1,18,0.00,,---,0.00,VWS V14.00,2013-03-03 08:04:00,
2013-03-03 00:05:00,54.5,11.9,29.94,West,270,9.6,10.1,18,0.00,,---,0.00,VWS V14.00,2013-03-03 08:05:00,
2013-03-03 00:08:00,54.5,11.9,29.94,West,270,5.4,9.8,18,0.00,,---,0.00,VWS V14.00,2013-03-03 08:08:00,
2013-03-03 00:09:00,54.5,11.9,29.94,WNW,292,6.3,9.8,18,0.00,,---,0.00,VWS V14.00,2013-03-03 08:09:00,
2013-03-03 00:10:00,54.5,11.9,29.94,West,270,9.4,9.8,18,0.00,,---,0.00,VWS V14.00,2013-03-03 08:10:00,
2013-03-03 00:14:00,54.3,11.7,29.94,West,270,5.8,6.5,18,0.00,,---,0.00,VWS V14.00,2013-03-03 08:14:00,
2013-03-03 00:15:00,54.7,12.0,29.94,WSW,248,12.5,13.0,18,0.00,,---,0.00,VWS V14.00,2013-03-03 08:15:00,
2013-03-03 00:19:00,55.2,12.5,29.94,West,270,11.4,13.2,18,0.00,,---,0.00,VWS V14.00,2013-03-03 08:19:00,
2013-03-03 00:20:00,55.2,12.5,29.94,West,270,10.3,13.2,18,0.00,,---,0.00,VWS V14.00,2013-03-03 08:20:00,
2013-03-03 00:24:00,55.4,11.3,29.94,West,270,13.0,14.5,17,0.00,,---,0.00,VWS V14.00,2013-03-03 08:24:00,
2013-03-03 00:25:00,55.4,11.3,29.94,West,270,7.8,14.5,17,0.00,,---,0.00,VWS V14.00,2013-03-03 08:25:00,
2013-03-03 00:29:00,55.0,12.3,29.94,WNW,292,9.0,13.2,18,0.00,,---,0.00,VWS V14.00,2013-03-03 08:29:00,
2013-03-03 00:30:00,55.0,12.3,29.94,WNW,292,8.5,13.2,18,0.00,,---,0.00,VWS V14.00,2013-03-03 08:30:00,
2013-03-03 00:34:00,55.4,11.3,29.94,WSW,248,15.9,15.9,17,0.00,,---,0.00,VWS V14.00,2013-03-03 08:34:00,
2013-03-03 00:35:00,55.6,11.5,29.94,WSW,248,13.0,15.9,17,0.00,,---,0.00,VWS V14.00,2013-03-03 08:35:00,
2013-03-03 00:39:00,55.6,11.5,29.94,WSW,248,15.4,17.5,17,0.00,,---,0.00,VWS V14.00,2013-03-03 08:39:00,
2013-03-03 00:40:00,55.8,11.6,29.94,West,270,13.0,17.5,17,0.00,,---,0.00,VWS V14.00,2013-03-03 08:40:00,
2013-03-03 00:41:00,55.8,11.6,29.94,WSW,248,17.7,17.7,17,0.00,,---,0.00,VWS V14.00,2013-03-03 08:41:00,
2013-03-03 00:44:00,55.6,11.5,29.94,West,270,16.8,17.7,17,0.00,,---,0.00,VWS V14.00,2013-03-03 08:44:00,
2013-03-03 00:45:00,55.6,11.5,29.94,West,270,12.8,17.7,17,0.00,,---,0.00,VWS V14.00,2013-03-03 08:45:00,
2013-03-03 00:46:00,55.4,11.3,29.94,West,270,12.1,17.7,17,0.00,,---,0.00,VWS V14.00,2013-03-03 08:46:00,
2013-03-03 00:49:00,55.0,12.3,29.94,West,270,7.8,15.2,18,0.00,,---,0.00,VWS V14.00,2013-03-03 08:49:00,
2013-03-03 00:50:00,55.0,12.3,29.94,West,270,7.8,15.2,18,0.00,,---,0.00,VWS V14.00,2013-03-03 08:50:00,
2013-03-03 00:51:00,55.0,12.3,29.94,WNW,292,8.5,15.2,18,0.00,,---,0.00,VWS V14.00,2013-03-03 08:51:00,
2013-03-03 00:54:00,54.9,12.2,29.94,WNW,292,9.0,13.2,18,0.00,,---,0.00,VWS V14.00,2013-03-03 08:54:00,
2013-03-03 00:55:00,54.9,12.2,29.94,WNW,292,9.0,13.2,18,0.00,,---,0.00,VWS V14.00,2013-03-03 08:55:00,
2013-03-03 00:56:00,54.7,12.0,29.94,WNW,292,10.3,13.2,18,0.00,,---,0.00,VWS V14.00,2013-03-03 08:56:00,
2013-03-03 01:00:00,54.5,11.9,29.94,West,270,8.7,12.5,18,0.00,,---,0.00,VWS V14.00,2013-03-03 09:00:00,
2013-03-03 01:01:00,54.5,11.9,29.94,West,270,7.4,12.5,18,0.00,,---,0.00,VWS V14.00,2013-03-03 09:01:00,
2013-03-03 01:05:00,54.3,11.7,29.94,WSW,248,7.6,11.0,18,0.00,,---,0.00,VWS V14.00,2013-03-03 09:05:00,
2013-03-03 01:06:00,54.3,11.7,29.94,West,270,8.7,8.7,18,0.00,,---,0.00,VWS V14.00,2013-03-03 09:06:00,
2013-03-03 01:10:00,54.5,11.9,29.94,West,270,8.5,10.1,18,0.00,,---,0.00,VWS V14.00,2013-03-03 09:10:00,
2013-03-03 01:11:00,54.3,11.7,29.94,WNW,292,8.1,10.1,18,0.00,,---,0.00,VWS V14.00,2013-03-03 09:11:00,
2013-03-03 01:15:00,54.3,11.7,29.94,West,270,7.6,10.1,18,0.00,,---,0.00,VWS V14.00,2013-03-03 09:15:00,
2013-03-03 01:17:00,54.1,11.6,29.94,WNW,292,7.6,7.6,18,0.00,,---,0.00,VWS V14.00,2013-03-03 09:17:00,
2013-03-03 01:20:00,54.0,11.4,29.94,WNW,292,8.5,10.1,18,0.00,,---,0.00,VWS V14.00,2013-03-03 09:20:00,
2013-03-03 01:21:00,54.0,11.4,29.94,WNW,292,8.5,10.1,18,0.00,,---,0.00,VWS V14.00,2013-03-03 09:21:00,
2013-03-03 01:22:00,54.0,11.4,29.94,West,270,7.6,9.4,18,0.00,,---,0.00,VWS V14.00,2013-03-03 09:22:00,
2013-03-03 01:25:00,54.0,11.4,29.94,West,270,8.1,12.8,18,0.00,,---,0.00,VWS V14.00,2013-03-03 09:25:00,
2013-03-03 01:26:00,54.0,11.4,29.94,West,270,6.5,7.6,18,0.00,,---,0.00,VWS V14.00,2013-03-03 09:26:00,
2013-03-03 01:27:00,54.0,11.4,29.94,West,270,6.3,10.3,18,0.00,,---,0.00,VWS V14.00,2013-03-03 09:27:00,
2013-03-03 01:30:00,54.0,11.4,29.94,West,270,11.0,11.0,18,0.00,,---,0.00,VWS V14.00,2013-03-03 09:30:00,
2013-03-03 01:31:00,54.0,11.4,29.94,West,270,9.0,11.0,18,0.00,,---,0.00,VWS V14.00,2013-03-03 09:31:00,
2013-03-03 01:32:00,53.8,11.3,29.94,NW,315,7.4,10.3,18,0.00,,---,0.00,VWS V14.00,2013-03-03 09:32:00,
2013-03-03 01:35:00,53.8,11.3,29.94,West,270,8.5,10.3,18,0.00,,---,0.00,VWS V14.00,2013-03-03 09:35:00,
2013-03-03 01:36:00,53.8,11.3,29.94,West,270,6.0,10.3,18,0.00,,---,0.00,VWS V14.00,2013-03-03 09:36:00,
2013-03-03 01:37:00,53.6,11.1,29.94,WNW,292,8.7,8.7,18,0.00,,---,0.00,VWS V14.00,2013-03-03 09:37:00,
2013-03-03 01:40:00,53.6,11.1,29.94,West,270,6.5,10.3,18,0.00,,---,0.00,VWS V14.00,2013-03-03 09:40:00,
2013-03-03 01:41:00,53.6,11.1,29.94,WSW,248,5.6,10.3,18,0.00,,---,0.00,VWS V14.00,2013-03-03 09:41:00,
2013-03-03 01:42:00,53.6,11.1,29.94,West,270,6.3,8.7,18,0.00,,---,0.00,VWS V14.00,2013-03-03 09:42:00,
2013-03-03 01:45:00,53.4,14.5,29.94,WSW,248,6.9,9.2,21,0.00,,---,0.00,VWS V14.00,2013-03-03 09:45:00,
2013-03-03 01:46:00,53.4,14.5,29.94,WSW,248,5.8,5.8,21,0.00,,---,0.00,VWS V14.00,2013-03-03 09:46:00,
2013-03-03 01:47:00,53.4,14.5,29.94,West,270,7.6,8.5,21,0.00,,---,0.00,VWS V14.00,2013-03-03 09:47:00,
2013-03-03 01:50:00,53.4,14.5,29.94,West,270,8.5,10.7,21,0.00,,---,0.00,VWS V14.00,2013-03-03 09:50:00,
2013-03-03 01:51:00,53.4,14.5,29.94,West,270,8.5,10.7,21,0.00,,---,0.00,VWS V14.00,2013-03-03 09:51:00,
2013-03-03 01:52:00,53.4,14.5,29.94,West,270,5.8,12.3,21,0.00,,---,0.00,VWS V14.00,2013-03-03 09:52:00,
2013-03-03 01:55:00,53.2,14.3,29.94,WNW,292,9.6,12.3,21,0.00,,---,0.00,VWS V14.00,2013-03-03 09:55:00,
2013-03-03 01:56:00,53.2,14.3,29.94,WNW,292,9.6,12.3,21,0.00,,---,0.00,VWS V14.00,2013-03-03 09:56:00,
2013-03-03 01:58:00,53.2,16.4,29.94,WNW,292,10.5,10.5,23,0.00,,---,0.00,VWS V14.00,2013-03-03 09:58:00,
2013-03-03 02:00:00,53.2,16.4,29.94,West,270,7.8,12.1,23,0.00,,---,0.00,VWS V14.00,2013-03-03 10:00:00,
2013-03-03 02:01:00,53.2,16.4,29.94,WNW,292,8.5,8.5,23,0.00,,---,0.00,VWS V14.00,2013-03-03 10:01:00,
2013-03-03 02:03:00,53.2,16.4,29.94,WNW,292,10.7,10.7,23,0.00,,---,0.00,VWS V14.00,2013-03-03 10:03:00,
2013-03-03 02:05:00,53.2,16.4,29.94,West,270,8.7,10.7,23,0.00,,---,0.00,VWS V14.00,2013-03-03 10:05:00,
2013-03-03 02:06:00,53.2,19.3,29.94,West,270,7.6,8.7,26,0.00,,---,0.00,VWS V14.00,2013-03-03 10:06:00,
2013-03-03 02:08:00,53.2,19.3,29.94,West,270,11.0,11.0,26,0.00,,---,0.00,VWS V14.00,2013-03-03 10:08:00,
2013-03-03 02:10:00,51.8,21.4,29.94,WNW,292,6.0,10.3,30,0.00,,---,0.00,VWS V14.00,2013-03-03 10:10:00,
2013-03-03 02:11:00,53.1,19.1,29.94,West,270,8.1,11.0,26,0.00,,---,0.00,VWS V14.00,2013-03-03 10:11:00,
2013-03-03 02:13:00,53.1,19.1,29.94,West,270,7.8,7.8,26,0.00,,---,0.00,VWS V14.00,2013-03-03 10:13:00,
2013-03-03 02:15:00,51.6,22.0,29.94,WNW,292,6.5,8.7,31,0.00,,---,0.00,VWS V14.00,2013-03-03 10:15:00,
2013-03-03 02:16:00,53.1,19.1,29.94,WSW,248,7.6,11.0,26,0.00,,---,0.00,VWS V14.00,2013-03-03 10:16:00,
2013-03-03 02:17:00,53.1,19.1,29.94,WSW,248,7.6,11.0,26,0.00,,---,0.00,VWS V14.00,2013-03-03 10:17:00,
2013-03-03 02:18:00,52.9,19.0,29.94,West,270,7.8,9.8,26,0.00,,---,0.00,VWS V14.00,2013-03-03 10:18:00,
2013-03-03 02:20:00,51.4,21.8,29.94,WNW,292,7.8,10.1,31,0.00,,---,0.00,VWS V14.00,2013-03-03 10:20:00,
2013-03-03 02:21:00,52.9,19.0,29.94,West,270,10.5,10.7,26,0.00,,---,0.00,VWS V14.00,2013-03-03 10:21:00,
2013-03-03 02:22:00,52.9,19.8,29.94,West,270,8.5,10.7,27,0.00,,---,0.00,VWS V14.00,2013-03-03 10:22:00,
2013-03-03 02:23:00,52.9,19.8,29.94,West,270,9.8,10.7,27,0.00,,---,0.00,VWS V14.00,2013-03-03 10:23:00,
2013-03-03 02:25:00,51.3,22.4,29.94,WNW,292,4.3,7.8,32,0.00,,---,0.00,VWS V14.00,2013-03-03 10:25:00,
2013-03-03 02:26:00,52.9,19.8,29.94,West,270,7.8,9.6,27,0.00,,---,0.00,VWS V14.00,2013-03-03 10:26:00,
2013-03-03 02:27:00,52.9,19.8,29.94,West,270,8.5,9.6,27,0.00,,---,0.00,VWS V14.00,2013-03-03 10:27:00,
2013-03-03 02:28:00,52.9,19.8,29.94,West,270,7.4,10.5,27,0.00,,---,0.00,VWS V14.00,2013-03-03 10:28:00,
2013-03-03 02:30:00,51.3,22.4,29.94,WNW,292,8.5,10.1,32,0.00,,---,0.00,VWS V14.00,2013-03-03 10:30:00,
2013-03-03 02:31:00,52.9,19.8,29.94,West,270,8.7,8.7,27,0.00,,---,0.00,VWS V14.00,2013-03-03 10:31:00,
2013-03-03 02:32:00,52.7,19.7,29.94,WNW,292,7.6,8.7,27,0.00,,---,0.00,VWS V14.00,2013-03-03 10:32:00,
2013-03-03 02:33:00,52.7,19.7,29.94,West,270,8.1,10.3,27,0.00,,---,0.00,VWS V14.00,2013-03-03 10:33:00,
2013-03-03 02:35:00,51.3,23.2,29.94,WNW,292,8.7,11.0,33,0.00,,---,0.00,VWS V14.00,2013-03-03 10:35:00,
2013-03-03 02:36:00,52.5,19.5,29.94,West,270,8.1,8.5,27,0.00,,---,0.00,VWS V14.00,2013-03-03 10:36:00,
2013-03-03 02:37:00,52.5,19.5,29.94,West,270,8.1,8.5,27,0.00,,---,0.00,VWS V14.00,2013-03-03 10:37:00,
2013-03-03 02:38:00,52.5,19.5,29.94,West,270,7.6,8.5,27,0.00,,---,0.00,VWS V14.00,2013-03-03 10:38:00,
2013-03-03 02:40:00,51.1,23.0,29.94,NW,315,8.5,10.7,33,0.00,,---,0.00,VWS V14.00,2013-03-03 10:40:00,
2013-03-03 02:41:00,52.3,20.2,29.94,West,270,5.4,11.4,28,0.00,,---,0.00,VWS V14.00,2013-03-03 10:41:00,
2013-03-03 02:42:00,52.3,20.2,29.94,WSW,248,6.3,8.1,28,0.00,,---,0.00,VWS V14.00,2013-03-03 10:42:00,
2013-03-03 02:43:00,52.3,20.2,29.94,West,270,6.3,8.1,28,0.00,,---,0.00,VWS V14.00,2013-03-03 10:43:00,
2013-03-03 02:45:00,50.7,22.7,29.94,WNW,292,10.5,13.6,33,0.00,,---,0.00,VWS V14.00,2013-03-03 10:45:00,
2013-03-03 02:46:00,52.2,20.1,29.94,WNW,292,7.8,7.8,28,0.00,,---,0.00,VWS V14.00,2013-03-03 10:46:00,
2013-03-03 02:47:00,52.2,20.1,29.94,West,270,10.5,10.5,28,0.00,,---,0.00,VWS V14.00,2013-03-03 10:47:00,
2013-03-03 02:49:00,52.3,20.2,29.94,West,270,7.8,12.5,28,0.00,,---,0.00,VWS V14.00,2013-03-03 10:49:00,
2013-03-03 02:50:00,50.5,22.5,29.94,WNW,292,9.8,10.5,33,0.00,,---,0.00,VWS V14.00,2013-03-03 10:50:00,
2013-03-03 02:51:00,52.3,20.2,29.94,WNW,292,10.3,10.3,28,0.00,,---,0.00,VWS V14.00,2013-03-03 10:51:00,
2013-03-03 02:52:00,52.3,20.2,29.94,WNW,292,7.8,10.3,28,0.00,,---,0.00,VWS V14.00,2013-03-03 10:52:00,
2013-03-03 02:54:00,52.2,20.9,29.94,West,270,10.5,10.5,29,0.00,,---,0.00,VWS V14.00,2013-03-03 10:54:00,
2013-03-03 02:55:00,50.2,22.9,29.94,WNW,292,10.3,10.7,34,0.00,,---,0.00,VWS V14.00,2013-03-03 10:55:00,
2013-03-03 02:57:00,52.2,20.9,29.94,WNW,292,8.7,8.7,29,0.00,,---,0.00,VWS V14.00,2013-03-03 10:57:00,
2013-03-03 02:59:00,52.0,20.7,29.94,WNW,292,10.7,10.7,29,0.00,,---,0.00,VWS V14.00,2013-03-03 10:59:00,
2013-03-03 03:00:00,49.8,23.3,29.94,WNW,292,8.5,10.7,35,0.00,,---,0.00,VWS V14.00,2013-03-03 11:00:00,
2013-03-03 03:02:00,52.0,20.7,29.94,WNW,292,7.6,10.7,29,0.00,,---,0.00,VWS V14.00,2013-03-03 11:02:00,
2013-03-03 03:04:00,51.8,21.4,29.94,WNW,292,8.5,10.7,30,0.00,,---,0.00,VWS V14.00,2013-03-03 11:04:00,
2013-03-03 03:05:00,49.8,24.0,29.94,NW,315,10.1,11.0,36,0.00,,---,0.00,VWS V14.00,2013-03-03 11:05:00,
2013-03-03 03:07:00,51.8,21.4,29.94,West,270,7.8,10.3,30,0.00,,---,0.00,VWS V14.00,2013-03-03 11:07:00,
2013-03-03 03:08:00,51.8,21.4,29.94,WNW,292,9.0,10.3,30,0.00,,---,0.00,VWS V14.00,2013-03-03 11:08:00,
2013-03-03 03:09:00,51.8,21.4,29.94,WNW,292,6.0,10.3,30,0.00,,---,0.00,VWS V14.00,2013-03-03 11:09:00,
2013-03-03 03:10:00,49.5,24.3,29.94,NW,315,10.7,14.8,37,0.00,,---,0.00,VWS V14.00,2013-03-03 11:10:00,
2013-03-03 03:12:00,51.6,22.0,29.94,West,270,8.1,8.7,31,0.00,,---,0.00,VWS V14.00,2013-03-03 11:12:00,
2013-03-03 03:13:00,51.6,22.0,29.94,West,270,8.1,8.7,31,0.00,,---,0.00,VWS V14.00,2013-03-03 11:13:00,
2013-03-03 03:14:00,51.6,22.0,29.94,West,270,7.4,8.7,31,0.00,,---,0.00,VWS V14.00,2013-03-03 11:14:00,
2013-03-03 03:15:00,49.3,24.1,29.94,NW,315,8.7,13.2,37,0.00,,---,0.00,VWS V14.00,2013-03-03 11:15:00,
2013-03-03 03:17:00,51.6,22.0,29.94,West,270,10.1,10.1,31,0.00,,---,0.00,VWS V14.00,2013-03-03 11:17:00,
2013-03-03 03:18:00,51.6,22.0,29.94,WNW,292,8.5,10.1,31,0.00,,---,0.00,VWS V14.00,2013-03-03 11:18:00,
2013-03-03 03:19:00,51.6,22.0,29.94,West,270,7.4,10.1,31,0.00,,---,0.00,VWS V14.00,2013-03-03 11:19:00,
2013-03-03 03:20:00,49.1,24.6,29.94,WNW,292,11.0,17.2,38,0.00,,---,0.00,VWS V14.00,2013-03-03 11:20:00,
2013-03-03 03:22:00,51.4,21.8,29.94,WNW,292,5.8,7.8,31,0.00,,---,0.00,VWS V14.00,2013-03-03 11:22:00,
2013-03-03 03:23:00,51.4,21.8,29.94,WNW,292,6.5,7.8,31,0.00,,---,0.00,VWS V14.00,2013-03-03 11:23:00,
2013-03-03 03:24:00,51.4,21.8,29.94,WNW,292,6.5,7.8,31,0.00,,---,0.00,VWS V14.00,2013-03-03 11:24:00,
2013-03-03 03:25:00,48.9,24.4,29.94,NW,315,8.5,14.5,38,0.00,,---,0.00,VWS V14.00,2013-03-03 11:25:00,
2013-03-03 03:27:00,51.3,22.4,29.94,WNW,292,5.4,5.4,32,0.00,,---,0.00,VWS V14.00,2013-03-03 11:27:00,
2013-03-03 03:28:00,51.3,22.4,29.94,WNW,292,9.8,9.8,32,0.00,,---,0.00,VWS V14.00,2013-03-03 11:28:00,
2013-03-03 03:30:00,51.3,22.4,29.94,WNW,292,8.5,10.1,32,0.00,,---,0.00,VWS V14.00,2013-03-03 11:30:00,
2013-03-03 03:32:00,51.3,22.4,29.94,WNW,292,7.6,8.7,32,0.00,,---,0.00,VWS V14.00,2013-03-03 11:32:00,
2013-03-03 03:33:00,51.3,23.2,29.94,WNW,292,8.1,8.7,33,0.00,,---,0.00,VWS V14.00,2013-03-03 11:33:00,
2013-03-03 03:35:00,51.3,23.2,29.94,West,270,8.7,11.0,33,0.00,,---,0.00,VWS V14.00,2013-03-03 11:35:00,
2013-03-03 03:37:00,51.3,23.2,29.94,WNW,292,8.5,8.7,33,0.00,,---,0.00,VWS V14.00,2013-03-03 11:37:00,
2013-03-03 03:38:00,51.3,23.2,29.94,WNW,292,6.5,8.7,33,0.00,,---,0.00,VWS V14.00,2013-03-03 11:38:00,
2013-03-03 03:40:00,51.3,23.2,29.94,WNW,292,10.1,10.1,33,0.00,,---,0.00,VWS V14.00,2013-03-03 11:40:00,
2013-03-03 03:42:00,50.9,22.8,29.94,WNW,292,13.6,13.6,33,0.00,,---,0.00,VWS V14.00,2013-03-03 11:42:00,
2013-03-03 03:43:00,50.9,22.8,29.94,WNW,292,8.5,13.6,33,0.00,,---,0.00,VWS V14.00,2013-03-03 11:43:00,
2013-03-03 03:45:00,50.7,22.7,29.94,WNW,292,10.1,13.6,33,0.00,,---,0.00,VWS V14.00,2013-03-03 11:45:00,
2013-03-03 03:47:00,50.7,22.7,29.94,NW,315,10.3,10.5,33,0.00,,---,0.00,VWS V14.00,2013-03-03 11:47:00,
2013-03-03 03:48:00,50.5,22.5,29.94,WNW,292,10.1,10.5,33,0.00,,---,0.00,VWS V14.00,2013-03-03 11:48:00,
2013-03-03 03:50:00,50.5,22.5,29.94,NW,315,7.4,10.5,33,0.00,,---,0.00,VWS V14.00,2013-03-03 11:50:00,
2013-03-03 03:52:00,50.2,22.9,29.94,WNW,292,10.7,10.7,34,0.00,,---,0.00,VWS V14.00,2013-03-03 11:52:00,
2013-03-03 03:53:00,50.2,22.9,29.94,WNW,292,9.8,10.7,34,0.00,,---,0.00,VWS V14.00,2013-03-03 11:53:00,
2013-03-03 03:55:00,50.2,22.9,29.94,WNW,292,10.3,10.7,34,0.00,,---,0.00,VWS V14.00,2013-03-03 11:55:00,
2013-03-03 03:58:00,50.2,22.9,29.94,WNW,292,6.7,10.7,34,0.00,,---,0.00,VWS V14.00,2013-03-03 11:58:00,
2013-03-03 04:00:00,50.2,22.9,29.94,NW,315,9.8,10.7,34,0.00,,---,0.00,VWS V14.00,2013-03-03 12:00:00,
2013-03-03 04:03:00,49.8,24.0,29.94,NW,315,10.1,11.0,36,0.00,,---,0.00,VWS V14.00,2013-03-03 12:03:00,
2013-03-03 04:05:00,49.8,24.0,29.94,WNW,292,7.6,11.0,36,0.00,,---,0.00,VWS V14.00,2013-03-03 12:05:00,
2013-03-03 04:08:00,49.6,24.5,29.94,WNW,292,12.3,12.3,37,0.00,,---,0.00,VWS V14.00,2013-03-03 12:08:00,
2013-03-03 04:10:00,47.8,25.9,29.94,WNW,292,10.1,14.3,42,0.00,,---,0.00,VWS V14.00,2013-03-03 12:10:00,
2013-03-03 04:11:00,49.5,24.3,29.94,NW,315,10.7,14.8,37,0.00,,---,0.00,VWS V14.00,2013-03-03 12:11:00,
2013-03-03 04:13:00,49.5,24.3,29.94,WNW,292,10.7,10.7,37,0.00,,---,0.00,VWS V14.00,2013-03-03 12:13:00,
2013-03-03 04:15:00,48.0,25.5,29.94,NW,315,11.0,14.8,41,0.00,,---,0.00,VWS V14.00,2013-03-03 12:15:00,
2013-03-03 04:16:00,49.3,24.1,29.94,NNW,338,8.5,8.7,37,0.00,,---,0.00,VWS V14.00,2013-03-03 12:16:00,
2013-03-03 04:18:00,49.1,24.6,29.94,NNW,338,15.2,17.2,38,0.00,,---,0.00,VWS V14.00,2013-03-03 12:18:00,
2013-03-03 04:21:00,49.1,24.6,29.94,NW,315,7.8,11.0,38,0.00,,---,0.00,VWS V14.00,2013-03-03 12:21:00,
2013-03-03 04:23:00,48.9,24.5,29.94,WNW,292,9.8,11.0,38,0.00,,---,0.00,VWS V14.00,2013-03-03 12:23:00,
2013-03-03 04:24:00,48.9,24.5,29.94,WNW,292,9.8,12.1,38,0.00,,---,0.00,VWS V14.00,2013-03-03 12:24:00,
2013-03-03 04:25:00,47.7,25.1,29.94,NW,315,10.5,15.2,41,0.00,,---,0.00,VWS V14.00,2013-03-03 12:25:00,
2013-03-03 04:26:00,48.9,24.5,29.94,NW,315,8.5,14.5,38,0.00,,---,0.00,VWS V14.00,2013-03-03 12:26:00,
2013-03-03 04:28:00,48.7,24.3,29.94,WNW,292,10.3,13.9,38,0.00,,---,0.00,VWS V14.00,2013-03-03 12:28:00,
2013-03-03 04:29:00,48.7,24.3,29.94,NW,315,12.5,13.9,38,0.00,,---,0.00,VWS V14.00,2013-03-03 12:29:00,
2013-03-03 04:31:00,48.7,24.3,29.94,NW,315,10.3,15.2,38,0.00,,---,0.00,VWS V14.00,2013-03-03 12:31:00,
2013-03-03 04:33:00,48.7,24.3,29.94,WNW,292,9.8,14.3,38,0.00,,---,0.00,VWS V14.00,2013-03-03 12:33:00,
2013-03-03 04:34:00,48.7,24.3,29.94,West,270,10.1,14.3,38,0.00,,---,0.00,VWS V14.00,2013-03-03 12:34:00,
2013-03-03 04:35:00,47.7,25.1,29.94,NW,315,11.0,13.9,41,0.00,,---,0.00,VWS V14.00,2013-03-03 12:35:00,
2013-03-03 04:36:00,48.7,24.9,29.94,WNW,292,10.7,10.7,39,0.00,,---,0.00,VWS V14.00,2013-03-03 12:36:00,
2013-03-03 04:38:00,48.7,24.9,29.94,NW,315,12.1,17.5,39,0.00,,---,0.00,VWS V14.00,2013-03-03 12:38:00,
2013-03-03 04:39:00,48.7,24.9,29.94,NW,315,12.1,17.5,39,0.00,,---,0.00,VWS V14.00,2013-03-03 12:39:00,
2013-03-03 04:40:00,47.7,25.1,29.94,WNW,292,10.1,12.3,41,0.00,,---,0.00,VWS V14.00,2013-03-03 12:40:00,
2013-03-03 04:41:00,48.6,24.7,29.94,NW,315,12.8,13.2,39,0.00,,---,0.00,VWS V14.00,2013-03-03 12:41:00,
2013-03-03 04:44:00,48.6,24.7,29.94,NW,315,10.5,14.8,39,0.00,,---,0.00,VWS V14.00,2013-03-03 12:44:00,
2013-03-03 04:45:00,47.5,25.5,29.97,WNW,292,9.2,10.3,42,0.00,,---,0.00,VWS V14.00,2013-03-03 12:45:00,
2013-03-03 04:46:00,48.4,25.2,29.94,NW,315,12.5,13.2,40,0.00,,---,0.00,VWS V14.00,2013-03-03 12:46:00,
2013-03-03 04:49:00,48.4,25.2,29.94,WNW,292,11.0,13.2,40,0.00,,---,0.00,VWS V14.00,2013-03-03 12:49:00,
2013-03-03 04:50:00,47.5,25.5,29.97,NW,315,4.9,9.6,42,0.00,,---,0.00,VWS V14.00,2013-03-03 12:50:00,
2013-03-03 04:51:00,48.2,25.0,29.94,WNW,292,11.0,13.2,40,0.00,,---,0.00,VWS V14.00,2013-03-03 12:51:00,
2013-03-03 04:54:00,48.2,25.6,29.94,WNW,292,11.9,13.2,41,0.00,,---,0.00,VWS V14.00,2013-03-03 12:54:00,
2013-03-03 04:55:00,47.3,25.4,29.97,NNW,338,5.8,9.6,42,0.00,,---,0.00,VWS V14.00,2013-03-03 12:55:00,
2013-03-03 04:56:00,48.0,25.5,29.94,NW,315,10.3,13.2,41,0.00,,---,0.00,VWS V14.00,2013-03-03 12:56:00,
2013-03-03 04:59:00,48.0,25.5,29.94,WNW,292,10.1,13.0,41,0.00,,---,0.00,VWS V14.00,2013-03-03 12:59:00,
2013-03-03 05:00:00,48.0,25.5,29.94,NW,315,10.3,13.0,41,0.00,,---,0.00,VWS V14.00,2013-03-03 13:00:00,
2013-03-03 05:02:00,48.0,26.0,29.94,WNW,292,14.5,15.4,42,0.00,,---,0.00,VWS V14.00,2013-03-03 13:02:00,
2013-03-03 05:04:00,48.0,26.0,29.94,WNW,292,12.5,15.4,42,0.00,,---,0.00,VWS V14.00,2013-03-03 13:04:00,
2013-03-03 05:05:00,48.0,26.0,29.94,WNW,292,13.2,15.4,42,0.00,,---,0.00,VWS V14.00,2013-03-03 13:05:00,
2013-03-03 05:07:00,47.8,25.9,29.94,WNW,292,13.6,14.3,42,0.00,,---,0.00,VWS V14.00,2013-03-03 13:07:00,
2013-03-03 05:09:00,47.8,25.9,29.94,WNW,292,10.7,14.3,42,0.00,,---,0.00,VWS V14.00,2013-03-03 13:09:00,
2013-03-03 05:10:00,47.8,25.9,29.94,West,270,10.3,14.3,42,0.00,,---,0.00,VWS V14.00,2013-03-03 13:10:00,
2013-03-03 05:12:00,47.8,25.9,29.94,NW,315,10.7,12.5,42,0.00,,---,0.00,VWS V14.00,2013-03-03 13:12:00,
2013-03-03 05:14:00,48.0,25.5,29.94,WNW,292,13.2,14.8,41,0.00,,---,0.00,VWS V14.00,2013-03-03 13:14:00,
2013-03-03 05:15:00,48.0,25.5,29.94,NW,315,11.0,14.8,41,0.00,,---,0.00,VWS V14.00,2013-03-03 13:15:00,
2013-03-03 05:17:00,48.0,25.5,29.94,NW,315,11.0,11.0,41,0.00,,---,0.00,VWS V14.00,2013-03-03 13:17:00,
2013-03-03 05:19:00,47.8,25.3,29.94,NW,315,12.5,12.5,41,0.00,,---,0.00,VWS V14.00,2013-03-03 13:19:00,
2013-03-03 05:20:00,47.8,25.9,29.94,WNW,292,13.2,15.2,42,0.00,,---,0.00,VWS V14.00,2013-03-03 13:20:00,
2013-03-03 05:22:00,47.8,25.9,29.94,NW,315,12.3,15.2,42,0.00,,---,0.00,VWS V14.00,2013-03-03 13:22:00,
2013-03-03 05:24:00,47.7,25.7,29.94,NNW,338,11.0,15.2,42,0.00,,---,0.00,VWS V14.00,2013-03-03 13:24:00,
2013-03-03 05:25:00,47.7,25.7,29.94,NNW,338,11.0,15.2,42,0.00,,---,0.00,VWS V14.00,2013-03-03 13:25:00,
2013-03-03 05:26:00,47.7,25.1,29.94,NW,315,9.6,10.5,41,0.00,,---,0.00,VWS V14.00,2013-03-03 13:26:00,
2013-03-03 05:27:00,47.7,25.1,29.94,WNW,292,11.2,11.4,41,0.00,,---,0.00,VWS V14.00,2013-03-03 13:27:00,
2013-03-03 05:29:00,47.7,25.1,29.94,NNW,338,8.5,13.9,41,0.00,,---,0.00,VWS V14.00,2013-03-03 13:29:00,
2013-03-03 05:30:00,47.7,25.1,29.94,NW,315,8.1,13.9,41,0.00,,---,0.00,VWS V14.00,2013-03-03 13:30:00,
2013-03-03 05:31:00,47.7,25.1,29.94,NW,315,10.1,13.9,41,0.00,,---,0.00,VWS V14.00,2013-03-03 13:31:00,
2013-03-03 05:32:00,47.7,25.1,29.94,WNW,292,10.1,13.9,41,0.00,,---,0.00,VWS V14.00,2013-03-03 13:32:00,
2013-03-03 05:34:00,47.7,25.1,29.94,NW,315,11.2,13.9,41,0.00,,---,0.00,VWS V14.00,2013-03-03 13:34:00,
2013-03-03 05:35:00,47.7,25.1,29.94,NW,315,11.2,13.9,41,0.00,,---,0.00,VWS V14.00,2013-03-03 13:35:00,
2013-03-03 05:36:00,47.7,25.1,29.94,WNW,292,9.2,11.0,41,0.00,,---,0.00,VWS V14.00,2013-03-03 13:36:00,
2013-03-03 05:37:00,47.7,25.1,29.94,WNW,292,7.6,11.0,41,0.00,,---,0.00,VWS V14.00,2013-03-03 13:37:00,
2013-03-03 05:40:00,47.7,25.1,29.94,WNW,292,8.7,12.3,41,0.00,,---,0.00,VWS V14.00,2013-03-03 13:40:00,
2013-03-03 05:41:00,47.7,25.1,29.94,WNW,292,10.1,10.1,41,0.00,,---,0.00,VWS V14.00,2013-03-03 13:41:00,
2013-03-03 05:43:00,47.7,25.1,29.94,WNW,292,10.3,10.3,41,0.00,,---,0.00,VWS V14.00,2013-03-03 13:43:00,
2013-03-03 05:45:00,47.7,25.1,29.97,NW,315,7.8,10.3,41,0.00,,---,0.00,VWS V14.00,2013-03-03 13:45:00,
2013-03-03 05:46:00,47.5,25.5,29.97,NW,315,8.5,9.2,42,0.00,,---,0.00,VWS V14.00,2013-03-03 13:46:00,
2013-03-03 05:48:00,47.5,25.5,29.97,NW,315,9.6,9.6,42,0.00,,---,0.00,VWS V14.00,2013-03-03 13:48:00,
2013-03-03 05:50:00,47.5,25.5,29.97,NW,315,7.2,9.6,42,0.00,,---,0.00,VWS V14.00,2013-03-03 13:50:00,
2013-03-03 05:51:00,47.3,25.4,29.97,WNW,292,5.8,5.8,42,0.00,,---,0.00,VWS V14.00,2013-03-03 13:51:00,
2013-03-03 05:53:00,47.5,25.5,29.97,NW,315,6.0,9.6,42,0.00,,---,0.00,VWS V14.00,2013-03-03 13:53:00,
2013-03-03 05:55:00,47.3,25.4,29.97,NW,315,8.5,9.6,42,0.00,,---,0.00,VWS V14.00,2013-03-03 13:55:00,
2013-03-03 05:56:00,47.3,25.4,29.97,NNW,338,4.3,5.8,42,0.00,,---,0.00,VWS V14.00,2013-03-03 13:56:00,
2013-03-03 05:58:00,47.3,25.4,29.94,NW,315,7.8,8.5,42,0.00,,---,0.00,VWS V14.00,2013-03-03 13:58:00,
2013-03-03 06:00:00,47.3,25.4,29.94,NNW,338,7.4,8.5,42,0.00,,---,0.00,VWS V14.00,2013-03-03 14:00:00,
2013-03-03 06:02:00,47.3,25.4,29.94,NNW,338,7.4,7.6,42,0.00,,---,0.00,VWS V14.00,2013-03-03 14:02:00,
2013-03-03 06:03:00,47.3,25.4,29.94,WNW,292,4.3,7.8,42,0.00,,---,0.00,VWS V14.00,2013-03-03 14:03:00,
2013-03-03 06:05:00,47.3,25.4,29.94,NNW,338,7.4,7.8,42,0.00,,---,0.00,VWS V14.00,2013-03-03 14:05:00,
2013-03-03 06:07:00,47.5,25.5,29.94,WNW,292,7.4,7.4,42,0.00,,---,0.00,VWS V14.00,2013-03-03 14:07:00,
2013-03-03 06:08:00,47.5,25.5,29.94,NNW,338,6.3,8.5,42,0.00,,---,0.00,VWS V14.00,2013-03-03 14:08:00,
2013-03-03 06:10:00,47.5,25.5,29.94,NNW,338,5.8,8.5,42,0.00,,---,0.00,VWS V14.00,2013-03-03 14:10:00,
2013-03-03 06:12:00,47.5,25.5,29.94,NNW,338,5.8,8.5,42,0.00,,---,0.00,VWS V14.00,2013-03-03 14:12:00,
2013-03-03 06:14:00,47.5,25.5,29.94,NW,315,6.3,8.5,42,0.00,,---,0.00,VWS V14.00,2013-03-03 14:14:00,
2013-03-03 06:15:00,47.5,25.5,29.94,NNW,338,4.0,8.5,42,0.00,,---,0.00,VWS V14.00,2013-03-03 14:15:00,
2013-03-03 06:17:00,47.5,25.5,29.94,NW,315,5.8,8.1,42,0.00,,---,0.00,VWS V14.00,2013-03-03 14:17:00,
2013-03-03 06:19:00,47.5,25.5,29.94,NNW,338,4.3,8.1,42,0.00,,---,0.00,VWS V14.00,2013-03-03 14:19:00,
2013-03-03 06:20:00,47.5,25.5,29.94,NW,315,7.4,8.1,42,0.00,,---,0.00,VWS V14.00,2013-03-03 14:20:00,
2013-03-03 06:22:00,47.5,25.5,29.94,NNW,338,6.0,7.6,42,0.00,,---,0.00,VWS V14.00,2013-03-03 14:22:00,
2013-03-03 06:24:00,47.5,25.5,29.94,NW,315,6.5,8.7,42,0.00,,---,0.00,VWS V14.00,2013-03-03 14:24:00,
2013-03-03 06:25:00,47.5,25.5,29.94,NNW,338,5.8,8.7,42,0.00,,---,0.00,VWS V14.00,2013-03-03 14:25:00,
2013-03-03 06:27:00,47.5,25.5,29.94,NW,315,4.7,6.3,42,0.00,,---,0.00,VWS V14.00,2013-03-03 14:27:00,
2013-03-03 06:29:00,47.5,25.5,29.94,NNW,338,6.0,6.3,42,0.00,,---,0.00,VWS V14.00,2013-03-03 14:29:00,
2013-03-03 06:30:00,47.5,25.5,29.94,NW,315,5.6,6.3,42,0.00,,---,0.00,VWS V14.00,2013-03-03 14:30:00,
2013-03-03 06:32:00,47.3,25.4,29.94,NNW,338,4.3,4.3,42,0.00,,---,0.00,VWS V14.00,2013-03-03 14:32:00,
2013-03-03 06:34:00,47.3,25.4,29.94,NW,315,4.9,5.4,42,0.00,,---,0.00,VWS V14.00,2013-03-03 14:34:00,
2013-03-03 06:35:00,47.3,25.4,29.94,NNW,338,0.9,5.4,42,0.00,,---,0.00,VWS V14.00,2013-03-03 14:35:00,
2013-03-03 06:36:00,47.3,25.4,29.94,North,0,3.1,5.4,42,0.00,,---,0.00,VWS V14.00,2013-03-03 14:36:00,
2013-03-03 06:37:00,47.3,25.4,29.94,North,0,4.3,4.5,42,0.00,,---,0.00,VWS V14.00,2013-03-03 14:37:00,
2013-03-03 06:39:00,47.3,25.4,29.94,North,0,4.3,4.5,42,0.00,,---,0.00,VWS V14.00,2013-03-03 14:39:00,
2013-03-03 06:40:00,47.3,25.4,29.94,NW,315,5.6,5.6,42,0.00,,---,0.00,VWS V14.00,2013-03-03 14:40:00,
2013-03-03 06:41:00,47.3,25.4,29.94,NW,315,5.6,5.6,42,0.00,,---,0.00,VWS V14.00,2013-03-03 14:41:00,
2013-03-03 06:42:00,47.3,25.4,29.94,NNW,338,0.0,0.0,42,0.00,,---,0.00,VWS V14.00,2013-03-03 14:42:00,
2013-03-03 06:44:00,47.3,24.8,29.94,NNE,22,0.0,0.0,41,0.00,,---,0.00,VWS V14.00,2013-03-03 14:44:00,
2013-03-03 06:45:00,47.3,24.8,29.94,NNE,22,0.0,0.0,41,0.00,,---,0.00,VWS V14.00,2013-03-03 14:45:00,
2013-03-03 06:46:00,47.3,24.8,29.94,NNE,22,0.0,0.0,41,0.00,,---,0.00,VWS V14.00,2013-03-03 14:46:00,
2013-03-03 06:48:00,47.1,24.6,29.94,NNE,22,0.0,0.0,41,0.00,,---,0.00,VWS V14.00,2013-03-03 14:48:00,
2013-03-03 06:49:00,47.1,24.6,29.94,NNW,338,0.0,0.0,41,0.00,,---,0.00,VWS V14.00,2013-03-03 14:49:00,
2013-03-03 06:50:00,47.1,25.2,29.94,NNE,22,3.8,5.6,42,0.00,,---,0.00,VWS V14.00,2013-03-03 14:50:00,
2013-03-03 06:51:00,47.1,25.2,29.94,NNE,22,4.3,4.3,42,0.00,,---,0.00,VWS V14.00,2013-03-03 14:51:00,
2013-03-03 06:53:00,47.1,25.2,29.94,NNE,22,3.1,4.3,42,0.00,,---,0.00,VWS V14.00,2013-03-03 14:53:00,
2013-03-03 06:54:00,47.3,25.4,29.94,North,0,5.6,5.6,42,0.00,,---,0.00,VWS V14.00,2013-03-03 14:54:00,
2013-03-03 06:55:00,47.3,25.4,29.94,NNW,338,3.6,5.6,42,0.00,,---,0.00,VWS V14.00,2013-03-03 14:55:00,
2013-03-03 06:56:00,47.3,25.4,29.94,NNW,338,3.6,5.6,42,0.00,,---,0.00,VWS V14.00,2013-03-03 14:56:00,
2013-03-03 06:58:00,47.3,25.4,29.97,NW,315,0.0,3.6,42,0.00,,---,0.00,VWS V14.00,2013-03-03 14:58:00,
2013-03-03 06:59:00,47.3,25.4,29.97,NW,315,0.0,3.6,42,0.00,,---,0.00,VWS V14.00,2013-03-03 14:59:00,
2013-03-03 07:00:00,47.3,24.8,29.97,North,0,0.0,3.6,41,0.00,,---,0.00,VWS V14.00,2013-03-03 15:00:00,
2013-03-03 07:01:00,47.3,24.8,29.97,NNE,22,0.0,0.0,41,0.00,,---,0.00,VWS V14.00,2013-03-03 15:01:00,
2013-03-03 07:03:00,47.3,24.8,29.97,South,180,0.0,0.0,41,0.00,,---,0.00,VWS V14.00,2013-03-03 15:03:00,
2013-03-03 07:04:00,47.3,26.0,29.97,SE,135,4.3,4.3,43,0.00,,---,0.00,VWS V14.00,2013-03-03 15:04:00,
2013-03-03 07:05:00,47.1,26.9,29.97,NE,45,2.5,4.3,45,0.00,,---,0.00,VWS V14.00,2013-03-03 15:05:00,
2013-03-03 07:06:00,46.9,26.7,29.97,NE,45,4.3,4.3,45,0.00,,---,0.00,VWS V14.00,2013-03-03 15:06:00,
2013-03-03 07:08:00,46.8,28.1,29.97,North,0,3.6,5.4,48,0.00,,---,0.00,VWS V14.00,2013-03-03 15:08:00,
2013-03-03 07:09:00,46.6,28.0,29.97,North,0,4.5,5.4,48,0.00,,---,0.00,VWS V14.00,2013-03-03 15:09:00,
2013-03-03 07:10:00,46.4,28.3,29.97,NNE,22,6.0,6.0,49,0.00,,---,0.00,VWS V14.00,2013-03-03 15:10:00,
2013-03-03 07:11:00,46.4,28.3,29.97,NNE,22,6.0,6.0,49,0.00,,---,0.00,VWS V14.00,2013-03-03 15:11:00,
2013-03-03 07:13:00,46.0,29.4,29.97,ENE,68,3.4,6.0,52,0.00,,---,0.00,VWS V14.00,2013-03-03 15:13:00,
2013-03-03 07:14:00,45.7,29.1,29.97,ENE,68,2.7,6.0,52,0.00,,---,0.00,VWS V14.00,2013-03-03 15:14:00,
2013-03-03 07:15:00,44.1,34.9,30.00,ENE,68,2.9,4.0,70,0.00,,---,0.00,VWS V14.00,2013-03-03 15:15:00,
2013-03-03 07:16:00,45.5,29.4,29.97,NE,45,6.0,6.0,53,0.00,,---,0.00,VWS V14.00,2013-03-03 15:16:00,
2013-03-03 07:18:00,45.5,29.4,29.97,ENE,68,4.3,6.0,53,0.00,,---,0.00,VWS V14.00,2013-03-03 15:18:00,
2013-03-03 07:19:00,45.5,29.4,29.97,ENE,68,3.8,6.0,53,0.00,,---,0.00,VWS V14.00,2013-03-03 15:19:00,
2013-03-03 07:20:00,44.1,34.9,30.00,East,90,0.0,3.6,70,0.00,,---,0.00,VWS V14.00,2013-03-03 15:20:00,
2013-03-03 07:21:00,45.5,29.4,29.97,East,90,5.8,6.0,53,0.00,,---,0.00,VWS V14.00,2013-03-03 15:21:00,
2013-03-03 07:23:00,45.1,31.7,29.97,East,90,3.8,5.8,59,0.00,,---,0.00,VWS V14.00,2013-03-03 15:23:00,
2013-03-03 07:25:00,45.0,31.5,29.97,East,90,4.5,6.0,59,0.00,,---,0.00,VWS V14.00,2013-03-03 15:25:00,
2013-03-03 07:26:00,45.0,31.5,29.97,East,90,4.5,6.0,59,0.00,,---,0.00,VWS V14.00,2013-03-03 15:26:00,
2013-03-03 07:28:00,44.8,32.6,29.94,East,90,6.3,7.4,62,0.00,,---,0.00,VWS V14.00,2013-03-03 15:28:00,
2013-03-03 07:30:00,44.8,32.6,29.94,East,90,6.3,7.4,62,0.00,,---,0.00,VWS V14.00,2013-03-03 15:30:00,
2013-03-03 07:31:00,44.8,32.6,29.94,East,90,6.3,7.4,62,0.00,,---,0.00,VWS V14.00,2013-03-03 15:31:00,
2013-03-03 07:32:00,44.8,32.6,29.94,East,90,4.5,6.3,62,0.00,,---,0.00,VWS V14.00,2013-03-03 15:32:00,
2013-03-03 07:33:00,44.8,32.6,29.94,East,90,5.8,6.3,62,0.00,,---,0.00,VWS V14.00,2013-03-03 15:33:00,
2013-03-03 07:35:00,44.8,32.6,29.94,ENE,68,3.1,6.3,62,0.00,,---,0.00,VWS V14.00,2013-03-03 15:35:00,
2013-03-03 07:36:00,44.6,32.4,29.94,ENE,68,3.8,3.8,62,0.00,,---,0.00,VWS V14.00,2013-03-03 15:36:00,
2013-03-03 07:37:00,44.6,32.4,29.94,ENE,68,3.8,3.8,62,0.00,,---,0.00,VWS V14.00,2013-03-03 15:37:00,
2013-03-03 07:39:00,44.6,32.4,29.94,ENE,68,3.8,3.8,62,0.00,,---,0.00,VWS V14.00,2013-03-03 15:39:00,
2013-03-03 07:40:00,44.6,32.4,29.94,ENE,68,3.8,3.8,62,0.00,,---,0.00,VWS V14.00,2013-03-03 15:40:00,
2013-03-03 07:41:00,44.6,31.6,29.94,East,90,3.8,3.8,60,0.00,,---,0.00,VWS V14.00,2013-03-03 15:41:00,
2013-03-03 07:42:00,44.6,31.6,29.94,ENE,68,3.1,3.8,60,0.00,,---,0.00,VWS V14.00,2013-03-03 15:42:00,
2013-03-03 07:44:00,44.6,31.6,29.97,NE,45,2.7,3.8,60,0.00,,---,0.00,VWS V14.00,2013-03-03 15:44:00,
2013-03-03 07:45:00,44.6,31.6,29.97,NE,45,3.1,3.8,60,0.00,,---,0.00,VWS V14.00,2013-03-03 15:45:00,
2013-03-03 07:47:00,44.6,31.6,29.97,NE,45,2.7,4.3,60,0.00,,---,0.00,VWS V14.00,2013-03-03 15:47:00,
2013-03-03 07:49:00,44.6,31.2,29.97,NE,45,3.8,4.9,59,0.00,,---,0.00,VWS V14.00,2013-03-03 15:49:00,
2013-03-03 07:50:00,44.6,31.2,29.97,NE,45,3.6,4.9,59,0.00,,---,0.00,VWS V14.00,2013-03-03 15:50:00,
2013-03-03 07:52:00,44.6,31.2,29.97,NE,45,3.6,3.6,59,0.00,,---,0.00,VWS V14.00,2013-03-03 15:52:00,
2013-03-03 07:54:00,44.6,31.2,29.97,NE,45,2.5,4.0,59,0.00,,---,0.00,VWS V14.00,2013-03-03 15:54:00,
2013-03-03 07:55:00,44.6,31.6,29.97,East,90,2.7,4.0,60,0.00,,---,0.00,VWS V14.00,2013-03-03 15:55:00,
2013-03-03 07:57:00,44.6,32.4,29.97,East,90,2.5,3.1,62,0.00,,---,0.00,VWS V14.00,2013-03-03 15:57:00,
2013-03-03 07:58:00,44.6,32.8,29.97,ENE,68,2.5,3.4,63,0.00,,---,0.00,VWS V14.00,2013-03-03 15:58:00,
2013-03-03 07:59:00,44.4,33.4,29.97,East,90,2.9,3.4,65,0.00,,---,0.00,VWS V14.00,2013-03-03 15:59:00,
2013-03-03 08:00:00,44.4,33.8,29.97,East,90,3.6,3.8,66,0.00,,---,0.00,VWS V14.00,2013-03-03 16:00:00,
2013-03-03 08:02:00,44.4,33.8,29.97,East,90,2.7,3.8,66,0.00,,---,0.00,VWS V14.00,2013-03-03 16:02:00,
2013-03-03 08:03:00,44.4,33.8,29.97,East,90,2.5,3.8,66,0.00,,---,0.00,VWS V14.00,2013-03-03 16:03:00,
2013-03-03 08:04:00,44.2,33.6,29.97,East,90,3.4,3.8,66,0.00,,---,0.00,VWS V14.00,2013-03-03 16:04:00,
2013-03-03 08:05:00,44.6,35.8,29.97,East,90,4.5,5.8,71,0.00,,---,0.00,VWS V14.00,2013-03-03 16:05:00,
2013-03-03 08:06:00,44.2,33.6,29.97,East,90,2.9,3.8,66,0.00,,---,0.00,VWS V14.00,2013-03-03 16:06:00,
2013-03-03 08:07:00,44.2,34.0,29.97,East,90,2.9,3.8,67,0.00,,---,0.00,VWS V14.00,2013-03-03 16:07:00,
2013-03-03 08:08:00,44.2,34.0,29.97,East,90,2.9,3.8,67,0.00,,---,0.00,VWS V14.00,2013-03-03 16:08:00,
2013-03-03 08:10:00,44.2,34.0,29.97,East,90,3.4,3.8,67,0.00,,---,0.00,VWS V14.00,2013-03-03 16:10:00,
2013-03-03 08:11:00,44.2,34.7,29.97,East,90,2.0,2.0,69,0.00,,---,0.00,VWS V14.00,2013-03-03 16:11:00,
2013-03-03 08:12:00,44.2,34.7,29.97,East,90,3.4,3.4,69,0.00,,---,0.00,VWS V14.00,2013-03-03 16:12:00,
2013-03-03 08:13:00,44.2,34.7,30.00,East,90,2.9,3.4,69,0.00,,---,0.00,VWS V14.00,2013-03-03 16:13:00,
2013-03-03 08:14:00,44.2,35.1,30.00,ENE,68,3.4,4.0,70,0.00,,---,0.00,VWS V14.00,2013-03-03 16:14:00,
2013-03-03 08:15:00,44.6,36.2,29.97,East,90,4.3,4.7,72,0.00,,---,0.00,VWS V14.00,2013-03-03 16:15:00,
2013-03-03 08:16:00,44.1,34.9,30.00,ENE,68,2.9,2.9,70,0.00,,---,0.00,VWS V14.00,2013-03-03 16:16:00,
2013-03-03 08:17:00,44.1,34.9,30.00,ENE,68,2.9,2.9,70,0.00,,---,0.00,VWS V14.00,2013-03-03 16:17:00,
2013-03-03 08:18:00,44.1,34.9,30.00,East,90,3.1,3.6,70,0.00,,---,0.00,VWS V14.00,2013-03-03 16:18:00,
2013-03-03 08:20:00,44.1,34.9,30.00,East,90,2.9,3.6,70,0.00,,---,0.00,VWS V14.00,2013-03-03 16:20:00,
2013-03-03 08:21:00,44.1,34.9,30.00,East,90,0.0,0.0,70,0.00,,---,0.00,VWS V14.00,2013-03-03 16:21:00,
2013-03-03 08:22:00,44.1,34.9,30.00,East,90,0.0,0.0,70,0.00,,---,0.00,VWS V14.00,2013-03-03 16:22:00,
2013-03-03 08:23:00,44.1,34.9,30.00,East,90,0.0,0.0,70,0.00,,---,0.00,VWS V14.00,2013-03-03 16:23:00,
2013-03-03 08:25:00,44.1,36.0,30.00,East,90,2.7,2.9,73,0.00,,---,0.00,VWS V14.00,2013-03-03 16:25:00,
2013-03-03 08:26:00,44.1,36.3,30.00,ENE,68,2.5,2.9,74,0.00,,---,0.00,VWS V14.00,2013-03-03 16:26:00,
2013-03-03 08:28:00,44.1,36.3,30.00,East,90,2.5,3.1,74,0.00,,---,0.00,VWS V14.00,2013-03-03 16:28:00,
2013-03-03 08:30:00,44.1,36.3,30.00,East,90,3.6,3.6,74,0.00,,---,0.00,VWS V14.00,2013-03-03 16:30:00,
2013-03-03 08:31:00,44.1,36.3,30.00,East,90,2.5,2.5,74,0.00,,---,0.00,VWS V14.00,2013-03-03 16:31:00,
2013-03-03 08:33:00,44.2,36.8,30.00,East,90,2.7,2.7,75,0.00,,---,0.00,VWS V14.00,2013-03-03 16:33:00,
2013-03-03 08:35:00,44.4,37.0,30.00,East,90,3.4,3.4,75,0.00,,---,0.00,VWS V14.00,2013-03-03 16:35:00,
2013-03-03 08:36:00,44.6,37.2,30.00,East,90,4.3,4.9,75,0.00,,---,0.00,VWS V14.00,2013-03-03 16:36:00,
2013-03-03 08:38:00,44.6,37.2,30.00,East,90,3.6,4.9,75,0.00,,---,0.00,VWS V14.00,2013-03-03 16:38:00,
2013-03-03 08:40:00,44.8,37.3,30.00,East,90,3.8,4.9,75,0.00,,---,0.00,VWS V14.00,2013-03-03 16:40:00,
2013-03-03 08:41:00,44.8,37.0,30.00,East,90,2.0,3.4,74,0.00,,---,0.00,VWS V14.00,2013-03-03 16:41:00,
2013-03-03 08:43:00,45.1,37.0,30.00,ENE,68,0.0,3.4,73,0.00,,---,0.00,VWS V14.00,2013-03-03 16:43:00,
2013-03-03 08:45:00,45.1,36.7,30.00,ENE,68,3.8,3.8,72,0.00,,---,0.00,VWS V14.00,2013-03-03 16:45:00,
2013-03-03 08:46:00,45.1,36.0,30.00,East,90,4.9,5.4,70,0.00,,---,0.00,VWS V14.00,2013-03-03 16:46:00,
2013-03-03 08:48:00,45.1,36.3,30.00,East,90,3.8,5.4,71,0.00,,---,0.00,VWS V14.00,2013-03-03 16:48:00,
2013-03-03 08:50:00,45.1,35.6,30.00,East,90,5.6,6.5,69,0.00,,---,0.00,VWS V14.00,2013-03-03 16:50:00,
2013-03-03 08:51:00,45.1,35.2,30.00,ENE,68,5.4,5.6,68,0.00,,---,0.00,VWS V14.00,2013-03-03 16:51:00,
2013-03-03 08:53:00,45.0,34.7,30.00,East,90,4.9,6.3,67,0.00,,---,0.00,VWS V14.00,2013-03-03 16:53:00,
2013-03-03 08:54:00,45.0,34.7,30.00,East,90,4.7,6.3,67,0.00,,---,0.00,VWS V14.00,2013-03-03 16:54:00,
2013-03-03 08:55:00,45.0,34.7,30.00,ENE,68,5.6,6.3,67,0.00,,---,0.00,VWS V14.00,2013-03-03 16:55:00,
2013-03-03 08:56:00,45.0,34.7,30.00,East,90,2.9,2.9,67,0.00,,---,0.00,VWS V14.00,2013-03-03 16:56:00,
2013-03-03 08:58:00,45.0,34.7,29.97,ENE,68,3.8,4.0,67,0.00,,---,0.00,VWS V14.00,2013-03-03 16:58:00,
2013-03-03 08:59:00,44.8,35.6,29.97,ENE,68,5.8,5.8,70,0.00,,---,0.00,VWS V14.00,2013-03-03 16:59:00,
2013-03-03 09:00:00,44.8,35.2,29.97,ESE,112,4.0,5.8,69,0.00,,---,0.00,VWS V14.00,2013-03-03 17:00:00,
2013-03-03 09:01:00,44.8,35.2,29.97,East,90,5.8,5.8,69,0.00,,---,0.00,VWS V14.00,2013-03-03 17:01:00,
2013-03-03 09:03:00,44.6,35.8,29.97,East,90,4.0,5.8,71,0.00,,---,0.00,VWS V14.00,2013-03-03 17:03:00,
2013-03-03 09:04:00,44.6,35.8,29.97,East,90,4.9,5.8,71,0.00,,---,0.00,VWS V14.00,2013-03-03 17:04:00,
2013-03-03 09:05:00,44.6,35.8,29.97,East,90,3.6,5.8,71,0.00,,---,0.00,VWS V14.00,2013-03-03 17:05:00,
2013-03-03 09:06:00,44.6,36.2,29.97,East,90,3.8,4.5,72,0.00,,---,0.00,VWS V14.00,2013-03-03 17:06:00,
2013-03-03 09:08:00,44.6,36.2,29.97,East,90,2.7,4.5,72,0.00,,---,0.00,VWS V14.00,2013-03-03 17:08:00,
2013-03-03 09:09:00,44.6,36.2,29.97,East,90,3.6,4.5,72,0.00,,---,0.00,VWS V14.00,2013-03-03 17:09:00,
2013-03-03 09:10:00,44.6,36.2,29.97,East,90,5.4,5.4,72,0.00,,---,0.00,VWS V14.00,2013-03-03 17:10:00,
2013-03-03 09:11:00,44.6,36.2,29.97,East,90,3.6,3.8,72,0.00,,---,0.00,VWS V14.00,2013-03-03 17:11:00,
2013-03-03 09:13:00,44.6,36.2,29.97,East,90,4.0,4.3,72,0.00,,---,0.00,VWS V14.00,2013-03-03 17:13:00,
2013-03-03 09:14:00,44.6,35.8,29.97,East,90,4.3,4.3,71,0.00,,---,0.00,VWS V14.00,2013-03-03 17:14:00,
2013-03-03 09:15:00,44.6,36.2,29.97,ENE,68,4.3,4.7,72,0.00,,---,0.00,VWS V14.00,2013-03-03 17:15:00,
2013-03-03 09:17:00,44.6,36.2,29.97,East,90,2.9,4.3,72,0.00,,---,0.00,VWS V14.00,2013-03-03 17:17:00,
2013-03-03 09:18:00,44.6,36.5,29.97,ESE,112,3.6,4.3,73,0.00,,---,0.00,VWS V14.00,2013-03-03 17:18:00,
2013-03-03 09:20:00,44.6,36.8,29.97,East,90,3.6,4.3,74,0.00,,---,0.00,VWS V14.00,2013-03-03 17:20:00,
2013-03-03 09:22:00,44.6,36.5,29.97,East,90,3.8,4.7,73,0.00,,---,0.00,VWS V14.00,2013-03-03 17:22:00,
2013-03-03 09:23:00,44.6,36.5,29.97,East,90,3.8,4.7,73,0.00,,---,0.00,VWS V14.00,2013-03-03 17:23:00,
2013-03-03 09:25:00,44.6,36.8,29.97,ESE,112,2.0,4.7,74,0.00,,---,0.00,VWS V14.00,2013-03-03 17:25:00,
2013-03-03 09:26:00,44.6,36.8,29.97,East,90,2.7,4.7,74,0.00,,---,0.00,VWS V14.00,2013-03-03 17:26:00,
2013-03-03 09:27:00,44.6,36.8,29.97,East,90,3.8,4.7,74,0.00,,---,0.00,VWS V14.00,2013-03-03 17:27:00,
2013-03-03 09:28:00,44.6,36.5,29.97,East,90,4.3,4.7,73,0.00,,---,0.00,VWS V14.00,2013-03-03 17:28:00,
2013-03-03 09:30:00,44.6,36.5,29.97,ESE,112,3.8,4.7,73,0.00,,---,0.00,VWS V14.00,2013-03-03 17:30:00,
2013-03-03 09:31:00,44.6,36.5,29.97,East,90,2.9,4.7,73,0.00,,---,0.00,VWS V14.00,2013-03-03 17:31:00,
2013-03-03 09:32:00,44.8,37.0,29.97,East,90,2.7,4.0,74,0.04,,---,0.04,VWS V14.00,2013-03-03 17:32:00,
2013-03-03 09:33:00,44.8,37.0,29.97,SE,135,3.6,4.0,74,0.04,,---,0.04,VWS V14.00,2013-03-03 17:33:00,
2013-03-03 09:35:00,44.8,37.0,29.97,SE,135,3.8,4.7,74,0.04,,---,0.04,VWS V14.00,2013-03-03 17:35:00,
2013-03-03 09:36:00,44.8,37.0,29.97,SE,135,3.4,3.6,74,0.04,,---,0.04,VWS V14.00,2013-03-03 17:36:00,
2013-03-03 09:37:00,44.8,37.0,29.97,ESE,112,2.5,4.7,74,0.04,,---,0.04,VWS V14.00,2013-03-03 17:37:00,
2013-03-03 09:39:00,45.0,37.5,29.97,SE,135,3.6,5.4,75,0.04,,---,0.04,VWS V14.00,2013-03-03 17:39:00,
2013-03-03 09:40:00,45.1,37.4,29.97,SE,135,3.4,5.4,74,0.04,,---,0.04,VWS V14.00,2013-03-03 17:40:00,
2013-03-03 09:41:00,45.1,37.4,29.97,East,90,4.7,4.7,74,0.04,,---,0.04,VWS V14.00,2013-03-03 17:41:00,
2013-03-03 09:43:00,45.1,37.4,29.97,East,90,4.0,4.7,74,0.04,,---,0.04,VWS V14.00,2013-03-03 17:43:00,
2013-03-03 09:44:00,45.1,37.4,29.97,East,90,4.9,5.4,74,0.04,,---,0.04,VWS V14.00,2013-03-03 17:44:00,
2013-03-03 09:45:00,45.1,37.0,29.97,East,90,6.0,6.3,73,0.04,,---,0.04,VWS V14.00,2013-03-03 17:45:00,
2013-03-03 09:46:00,45.1,36.7,29.97,SE,135,5.6,6.0,72,0.04,,---,0.04,VWS V14.00,2013-03-03 17:46:00,
2013-03-03 09:48:00,45.1,36.7,29.97,ESE,112,6.0,6.0,72,0.04,,---,0.04,VWS V14.00,2013-03-03 17:48:00,
2013-03-03 09:49:00,45.1,36.7,29.97,ESE,112,4.9,6.0,72,0.04,,---,0.04,VWS V14.00,2013-03-03 17:49:00,
2013-03-03 09:50:00,45.1,36.7,29.97,SE,135,3.6,6.0,72,0.04,,---,0.04,VWS V14.00,2013-03-03 17:50:00,
2013-03-03 09:51:00,45.1,36.7,29.97,SE,135,4.3,4.3,72,0.04,,---,0.04,VWS V14.00,2013-03-03 17:51:00,
2013-03-03 09:53:00,45.0,36.5,29.97,SE,135,4.7,6.3,72,0.04,,---,0.04,VWS V14.00,2013-03-03 17:53:00,
2013-03-03 09:54:00,45.0,36.5,29.97,SE,135,5.6,6.3,72,0.04,,---,0.04,VWS V14.00,2013-03-03 17:54:00,
2013-03-03 09:55:00,45.0,35.8,29.97,ESE,112,4.9,6.5,70,0.04,,---,0.04,VWS V14.00,2013-03-03 17:55:00,
2013-03-03 09:56:00,45.0,35.8,29.97,SE,135,4.9,4.9,70,0.04,,---,0.04,VWS V14.00,2013-03-03 17:56:00,
2013-03-03 09:58:00,45.0,35.8,29.97,East,90,5.4,5.4,70,0.04,,---,0.04,VWS V14.00,2013-03-03 17:58:00,
2013-03-03 09:59:00,45.0,35.8,29.97,ESE,112,4.9,5.8,70,0.04,,---,0.04,VWS V14.00,2013-03-03 17:59:00,
2013-03-03 10:00:00,45.0,34.7,30.00,ESE,112,4.9,6.0,67,0.05,,---,0.09,VWS V14.00,2013-03-03 18:00:00,
2013-03-03 10:01:00,45.0,35.8,29.97,SE,135,5.8,5.8,70,0.04,,---,0.04,VWS V14.00,2013-03-03 18:01:00,
2013-03-03 10:03:00,45.0,35.8,29.97,SE,135,3.1,5.8,70,0.04,,---,0.04,VWS V14.00,2013-03-03 18:03:00,
2013-03-03 10:05:00,45.0,36.1,29.97,SE,135,4.0,5.8,71,0.04,,---,0.04,VWS V14.00,2013-03-03 18:05:00,
2013-03-03 10:06:00,45.0,36.1,29.97,ESE,112,3.6,3.8,71,0.04,,---,0.04,VWS V14.00,2013-03-03 18:06:00,
2013-03-03 10:08:00,45.1,36.7,29.97,SE,135,3.1,3.8,72,0.04,,---,0.04,VWS V14.00,2013-03-03 18:08:00,
2013-03-03 10:10:00,45.1,37.4,29.97,SE,135,5.4,5.4,74,0.04,,---,0.04,VWS V14.00,2013-03-03 18:10:00,
2013-03-03 10:11:00,45.0,37.2,29.97,East,90,6.3,6.3,74,0.04,,---,0.04,VWS V14.00,2013-03-03 18:11:00,
2013-03-03 10:13:00,45.0,37.2,29.97,SE,135,5.4,6.3,74,0.04,,---,0.04,VWS V14.00,2013-03-03 18:13:00,
2013-03-03 10:15:00,44.8,37.0,30.00,SE,135,5.4,6.5,74,0.04,,---,0.04,VWS V14.00,2013-03-03 18:15:00,
2013-03-03 10:16:00,44.8,37.0,30.00,SE,135,4.0,4.5,74,0.04,,---,0.04,VWS V14.00,2013-03-03 18:16:00,
2013-03-03 10:18:00,44.8,37.0,30.00,SE,135,5.4,5.4,74,0.04,,---,0.04,VWS V14.00,2013-03-03 18:18:00,
2013-03-03 10:20:00,44.8,37.0,30.00,ESE,112,4.0,6.0,74,0.04,,---,0.04,VWS V14.00,2013-03-03 18:20:00,
2013-03-03 10:21:00,44.8,37.0,30.00,SE,135,6.3,7.2,74,0.04,,---,0.04,VWS V14.00,2013-03-03 18:21:00,
2013-03-03 10:22:00,44.8,37.0,30.00,SE,135,6.3,7.2,74,0.04,,---,0.04,VWS V14.00,2013-03-03 18:22:00,
2013-03-03 10:23:00,44.8,37.0,30.00,East,90,4.0,7.2,74,0.04,,---,0.04,VWS V14.00,2013-03-03 18:23:00,
2013-03-03 10:25:00,44.8,36.7,30.00,East,90,4.0,7.2,73,0.04,,---,0.04,VWS V14.00,2013-03-03 18:25:00,
2013-03-03 10:27:00,44.8,37.0,30.00,SE,135,4.9,6.5,74,0.04,,---,0.04,VWS V14.00,2013-03-03 18:27:00,
2013-03-03 10:28:00,44.8,37.0,29.97,SE,135,7.6,7.6,74,0.04,,---,0.04,VWS V14.00,2013-03-03 18:28:00,
2013-03-03 10:30:00,44.8,34.5,29.97,SE,135,4.5,4.7,67,0.05,,---,0.09,VWS V14.00,2013-03-03 18:30:00,
2013-03-03 10:31:00,44.8,37.0,29.97,SE,135,4.0,6.0,74,0.04,,---,0.04,VWS V14.00,2013-03-03 18:31:00,
2013-03-03 10:32:00,44.8,37.0,29.97,SE,135,6.3,6.3,74,0.04,,---,0.04,VWS V14.00,2013-03-03 18:32:00,
2013-03-03 10:33:00,44.8,37.0,29.97,SE,135,6.0,6.3,74,0.04,,---,0.04,VWS V14.00,2013-03-03 18:33:00,
2013-03-03 10:35:00,44.8,34.9,29.97,SE,135,2.7,6.3,68,0.05,,---,0.09,VWS V14.00,2013-03-03 18:35:00,
2013-03-03 10:36:00,45.0,37.9,29.97,ESE,112,7.2,7.2,76,0.00,,---,0.04,VWS V14.00,2013-03-03 18:36:00,
2013-03-03 10:37:00,45.0,37.9,29.97,ESE,112,7.2,7.2,76,0.00,,---,0.04,VWS V14.00,2013-03-03 18:37:00,
2013-03-03 10:38:00,45.0,37.9,29.97,SE,135,6.5,7.2,76,0.05,,---,0.09,VWS V14.00,2013-03-03 18:38:00,
2013-03-03 10:40:00,44.8,34.9,29.97,SE,135,2.9,4.7,68,0.05,,---,0.09,VWS V14.00,2013-03-03 18:40:00,
2013-03-03 10:41:00,44.8,37.3,29.97,SE,135,7.2,7.2,75,0.05,,---,0.09,VWS V14.00,2013-03-03 18:41:00,
2013-03-03 10:42:00,44.8,37.3,29.97,SE,135,4.9,7.2,75,0.05,,---,0.09,VWS V14.00,2013-03-03 18:42:00,
2013-03-03 10:43:00,44.8,37.0,29.97,ESE,112,7.4,10.1,74,0.05,,---,0.09,VWS V14.00,2013-03-03 18:43:00,
2013-03-03 10:45:00,45.3,35.8,29.97,SE,135,2.9,3.8,69,0.00,,---,0.09,VWS V14.00,2013-03-03 18:45:00,
2013-03-03 10:46:00,44.8,37.0,29.97,SE,135,8.7,8.7,74,0.05,,---,0.09,VWS V14.00,2013-03-03 18:46:00,
2013-03-03 10:47:00,45.0,37.5,29.97,ESE,112,6.5,8.7,75,0.05,,---,0.09,VWS V14.00,2013-03-03 18:47:00,
2013-03-03 10:49:00,45.1,37.7,29.97,SE,135,7.6,8.7,75,0.05,,---,0.09,VWS V14.00,2013-03-03 18:49:00,
2013-03-03 10:50:00,45.3,35.8,29.97,SE,135,2.9,3.8,69,0.00,,---,0.09,VWS V14.00,2013-03-03 18:50:00,
2013-03-03 10:51:00,45.0,36.8,29.97,SE,135,5.8,7.4,73,0.05,,---,0.09,VWS V14.00,2013-03-03 18:51:00,
2013-03-03 10:52:00,45.1,36.7,29.97,SE,135,6.3,7.4,72,0.05,,---,0.09,VWS V14.00,2013-03-03 18:52:00,
2013-03-03 10:53:00,45.1,36.7,29.97,SE,135,6.3,7.4,72,0.05,,---,0.09,VWS V14.00,2013-03-03 18:53:00,
2013-03-03 10:54:00,45.1,36.7,29.97,SE,135,6.3,7.4,72,0.05,,---,0.09,VWS V14.00,2013-03-03 18:54:00,
2013-03-03 10:55:00,45.7,36.5,29.97,SE,135,3.8,3.8,70,0.04,,---,0.13,VWS V14.00,2013-03-03 18:55:00,
2013-03-03 10:56:00,44.8,34.5,29.97,ESE,112,5.4,5.6,67,0.05,,---,0.09,VWS V14.00,2013-03-03 18:56:00,
2013-03-03 10:57:00,44.8,34.5,30.00,SE,135,4.0,5.6,67,0.05,,---,0.09,VWS V14.00,2013-03-03 18:57:00,
2013-03-03 10:58:00,44.8,34.5,30.00,SE,135,5.4,5.6,67,0.05,,---,0.09,VWS V14.00,2013-03-03 18:58:00,
2013-03-03 10:59:00,44.8,34.1,30.00,SE,135,5.8,6.0,66,0.05,,---,0.09,VWS V14.00,2013-03-03 18:59:00,
2013-03-03 11:00:00,45.9,35.5,29.97,SE,135,3.8,4.7,67,0.04,,---,0.13,VWS V14.00,2013-03-03 19:00:00,
2013-03-03 11:01:00,45.0,34.7,30.00,ESE,112,5.8,5.8,67,0.05,,---,0.09,VWS V14.00,2013-03-03 19:01:00,
2013-03-03 11:02:00,45.1,35.2,30.00,East,90,5.6,5.8,68,0.05,,---,0.09,VWS V14.00,2013-03-03 19:02:00,
2013-03-03 11:03:00,45.1,35.2,30.00,ESE,112,5.8,5.8,68,0.05,,---,0.09,VWS V14.00,2013-03-03 19:03:00,
2013-03-03 11:04:00,45.1,34.8,30.00,SE,135,5.6,6.0,67,0.05,,---,0.09,VWS V14.00,2013-03-03 19:04:00,
2013-03-03 11:06:00,45.1,34.8,30.00,SE,135,4.9,5.6,67,0.05,,---,0.09,VWS V14.00,2013-03-03 19:06:00,
2013-03-03 11:07:00,45.1,35.2,30.00,ESE,112,5.6,6.3,68,0.05,,---,0.09,VWS V14.00,2013-03-03 19:07:00,
2013-03-03 11:08:00,45.1,35.2,30.00,SE,135,6.5,6.5,68,0.05,,---,0.09,VWS V14.00,2013-03-03 19:08:00,
2013-03-03 11:09:00,45.1,35.2,30.00,ESE,112,6.0,7.4,68,0.05,,---,0.09,VWS V14.00,2013-03-03 19:09:00,
2013-03-03 11:10:00,46.6,35.5,29.97,SE,135,2.9,4.0,65,0.04,,---,0.13,VWS V14.00,2013-03-03 19:10:00,
2013-03-03 11:11:00,45.1,35.2,30.00,SE,135,7.2,7.2,68,0.05,,---,0.09,VWS V14.00,2013-03-03 19:11:00,
2013-03-03 11:13:00,45.1,34.8,30.00,ESE,112,5.6,7.2,67,0.05,,---,0.09,VWS V14.00,2013-03-03 19:13:00,
2013-03-03 11:14:00,45.0,34.7,29.97,SE,135,4.0,7.2,67,0.05,,---,0.09,VWS V14.00,2013-03-03 19:14:00,
2013-03-03 11:15:00,46.6,35.1,29.94,South,180,2.2,2.9,64,0.04,,---,0.13,VWS V14.00,2013-03-03 19:15:00,
2013-03-03 11:16:00,45.0,34.3,29.97,SE,135,4.3,4.3,66,0.05,,---,0.09,VWS V14.00,2013-03-03 19:16:00,
2013-03-03 11:18:00,45.0,34.7,29.97,ESE,112,4.9,6.0,67,0.05,,---,0.09,VWS V14.00,2013-03-03 19:18:00,
2013-03-03 11:19:00,44.8,33.8,29.97,SE,135,5.6,6.0,65,0.05,,---,0.09,VWS V14.00,2013-03-03 19:19:00,
2013-03-03 11:20:00,46.8,35.2,29.94,SSE,158,0.0,2.2,64,0.04,,---,0.13,VWS V14.00,2013-03-03 19:20:00,
2013-03-03 11:21:00,45.0,34.3,29.97,ESE,112,4.3,5.4,66,0.05,,---,0.09,VWS V14.00,2013-03-03 19:21:00,
2013-03-03 11:23:00,44.8,34.1,29.97,ESE,112,3.6,5.6,66,0.05,,---,0.09,VWS V14.00,2013-03-03 19:23:00,
2013-03-03 11:24:00,44.8,33.8,29.97,SE,135,6.5,6.5,65,0.05,,---,0.09,VWS V14.00,2013-03-03 19:24:00,
2013-03-03 11:25:00,46.9,34.6,29.94,SE,135,0.0,3.1,62,0.04,,---,0.13,VWS V14.00,2013-03-03 19:25:00,
2013-03-03 11:26:00,44.8,34.1,29.97,SE,135,4.3,4.7,66,0.05,,---,0.09,VWS V14.00,2013-03-03 19:26:00,
2013-03-03 11:28:00,44.8,34.5,29.97,SE,135,2.7,4.7,67,0.05,,---,0.09,VWS V14.00,2013-03-03 19:28:00,
2013-03-03 11:29:00,44.8,34.5,29.97,ESE,112,3.4,4.7,67,0.05,,---,0.09,VWS V14.00,2013-03-03 19:29:00,
2013-03-03 11:30:00,47.3,34.1,29.94,South,180,0.0,0.0,60,0.04,,---,0.13,VWS V14.00,2013-03-03 19:30:00,
2013-03-03 11:31:00,44.8,34.9,29.97,SE,135,5.4,5.4,68,0.05,,---,0.09,VWS V14.00,2013-03-03 19:31:00,
2013-03-03 11:33:00,44.8,34.5,29.97,SE,135,2.9,6.3,67,0.05,,---,0.09,VWS V14.00,2013-03-03 19:33:00,
2013-03-03 11:34:00,44.8,34.5,29.97,SE,135,2.9,6.3,67,0.05,,---,0.09,VWS V14.00,2013-03-03 19:34:00,
2013-03-03 11:35:00,47.3,34.5,29.94,South,180,0.0,0.0,61,0.04,,---,0.13,VWS V14.00,2013-03-03 19:35:00,
2013-03-03 11:36:00,44.8,34.9,29.97,SE,135,1.1,2.7,68,0.05,,---,0.09,VWS V14.00,2013-03-03 19:36:00,
2013-03-03 11:39:00,44.8,34.9,29.97,ESE,112,4.7,4.7,68,0.05,,---,0.09,VWS V14.00,2013-03-03 19:39:00,
2013-03-03 11:40:00,48.2,34.1,29.94,South,180,0.0,0.0,58,0.04,,---,0.13,VWS V14.00,2013-03-03 19:40:00,
2013-03-03 11:41:00,44.8,34.9,29.97,SE,135,5.4,5.4,68,0.00,,---,0.09,VWS V14.00,2013-03-03 19:41:00,
2013-03-03 11:44:00,44.8,35.2,29.97,ESE,112,3.4,5.4,69,0.00,,---,0.09,VWS V14.00,2013-03-03 19:44:00,
2013-03-03 11:47:00,45.0,35.8,29.97,SE,135,3.1,3.8,70,0.00,,---,0.09,VWS V14.00,2013-03-03 19:47:00,
2013-03-03 11:49:00,45.1,35.6,29.97,SE,135,3.4,3.8,69,0.00,,---,0.09,VWS V14.00,2013-03-03 19:49:00,
2013-03-03 11:50:00,49.3,34.7,29.94,South,180,1.6,2.9,57,0.04,,---,0.13,VWS V14.00,2013-03-03 19:50:00,
2013-03-03 11:52:00,45.3,35.8,29.97,SE,135,2.9,2.9,69,0.00,,---,0.09,VWS V14.00,2013-03-03 19:52:00,
2013-03-03 11:54:00,45.5,36.3,29.97,SE,135,2.7,3.1,70,0.00,,---,0.09,VWS V14.00,2013-03-03 19:54:00,
2013-03-03 11:55:00,49.3,33.8,29.94,South,180,0.0,2.0,55,0.04,,---,0.13,VWS V14.00,2013-03-03 19:55:00,
2013-03-03 11:57:00,45.7,36.5,29.97,South,180,3.1,3.8,70,0.04,,---,0.13,VWS V14.00,2013-03-03 19:57:00,
2013-03-03 11:59:00,45.7,35.7,29.97,South,180,3.6,3.8,68,0.04,,---,0.13,VWS V14.00,2013-03-03 19:59:00,
2013-03-03 12:00:00,49.8,33.4,29.94,WSW,248,0.0,0.0,53,0.00,,---,0.13,VWS V14.00,2013-03-03 20:00:00,
2013-03-03 12:02:00,46.0,35.0,29.97,SE,135,3.1,3.8,65,0.04,,---,0.13,VWS V14.00,2013-03-03 20:02:00,
2013-03-03 12:04:00,46.0,35.0,29.97,ESE,112,0.0,3.8,65,0.04,,---,0.13,VWS V14.00,2013-03-03 20:04:00,
2013-03-03 12:05:00,46.0,35.0,29.97,SE,135,1.3,3.8,65,0.04,,---,0.13,VWS V14.00,2013-03-03 20:05:00,
2013-03-03 12:08:00,46.6,35.8,29.97,SE,135,0.0,4.0,66,0.04,,---,0.13,VWS V14.00,2013-03-03 20:08:00,
2013-03-03 12:09:00,46.6,35.8,29.97,SE,135,2.0,4.0,66,0.04,,---,0.13,VWS V14.00,2013-03-03 20:09:00,
2013-03-03 12:10:00,46.6,35.5,29.97,SE,135,2.9,4.0,65,0.04,,---,0.13,VWS V14.00,2013-03-03 20:10:00,
2013-03-03 12:13:00,46.6,35.5,29.94,SE,135,0.0,2.9,65,0.04,,---,0.13,VWS V14.00,2013-03-03 20:13:00,
2013-03-03 12:14:00,46.8,35.2,29.94,South,180,0.0,2.9,64,0.04,,---,0.13,VWS V14.00,2013-03-03 20:14:00,
2013-03-03 12:15:00,46.6,35.1,29.94,SE,135,1.3,2.9,64,0.04,,---,0.13,VWS V14.00,2013-03-03 20:15:00,
2013-03-03 12:18:00,46.6,35.1,29.94,ESE,112,0.0,2.2,64,0.04,,---,0.13,VWS V14.00,2013-03-03 20:18:00,
2013-03-03 12:19:00,46.8,35.2,29.94,SE,135,0.0,2.2,64,0.04,,---,0.13,VWS V14.00,2013-03-03 20:19:00,
2013-03-03 12:20:00,46.8,35.2,29.94,SSE,158,0.0,2.2,64,0.04,,---,0.13,VWS V14.00,2013-03-03 20:20:00,
2013-03-03 12:23:00,46.8,35.2,29.94,SE,135,0.0,0.0,64,0.04,,---,0.13,VWS V14.00,2013-03-03 20:23:00,
2013-03-03 12:24:00,46.9,34.6,29.94,SE,135,3.1,3.1,62,0.04,,---,0.13,VWS V14.00,2013-03-03 20:24:00,
2013-03-03 12:25:00,46.9,34.6,29.94,SE,135,3.1,3.1,62,0.04,,---,0.13,VWS V14.00,2013-03-03 20:25:00,
2013-03-03 12:28:00,47.1,34.0,29.94,SE,135,0.0,0.0,60,0.04,,---,0.13,VWS V14.00,2013-03-03 20:28:00,
2013-03-03 12:29:00,47.3,34.1,29.94,SSE,158,0.0,0.0,60,0.04,,---,0.13,VWS V14.00,2013-03-03 20:29:00,
2013-03-03 12:30:00,47.3,34.5,29.94,South,180,0.0,0.0,61,0.04,,---,0.13,VWS V14.00,2013-03-03 20:30:00,
2013-03-03 12:33:00,47.1,34.0,29.94,South,180,0.0,0.0,60,0.04,,---,0.13,VWS V14.00,2013-03-03 20:33:00,
2013-03-03 12:34:00,47.3,34.5,29.94,South,180,0.0,0.0,61,0.04,,---,0.13,VWS V14.00,2013-03-03 20:34:00,
2013-03-03 12:35:00,49.8,30.9,29.94,WNW,292,0.0,1.6,48,0.00,,---,0.13,VWS V14.00,2013-03-03 20:35:00,
2013-03-03 12:36:00,47.3,34.5,29.94,South,180,0.0,0.0,61,0.04,,---,0.13,VWS V14.00,2013-03-03 20:36:00,
2013-03-03 12:38:00,47.7,34.0,29.94,South,180,0.0,0.0,59,0.04,,---,0.13,VWS V14.00,2013-03-03 20:38:00,
2013-03-03 12:39:00,47.7,34.0,29.94,South,180,0.0,0.0,59,0.04,,---,0.13,VWS V14.00,2013-03-03 20:39:00,
2013-03-03 12:40:00,47.7,34.0,29.94,South,180,0.0,0.0,59,0.04,,---,0.13,VWS V14.00,2013-03-03 20:40:00,
2013-03-03 12:41:00,48.4,34.3,29.94,South,180,0.0,0.0,58,0.04,,---,0.13,VWS V14.00,2013-03-03 20:41:00,
2013-03-03 12:43:00,48.7,34.6,29.94,NNW,338,0.0,0.0,58,0.04,,---,0.13,VWS V14.00,2013-03-03 20:43:00,
2013-03-03 12:45:00,49.3,34.7,29.94,NNW,338,0.0,0.0,57,0.04,,---,0.13,VWS V14.00,2013-03-03 20:45:00,
2013-03-03 12:46:00,49.5,35.3,29.94,NNW,338,0.0,0.0,58,0.04,,---,0.13,VWS V14.00,2013-03-03 20:46:00,
2013-03-03 12:48:00,49.5,34.9,29.94,SE,135,0.0,2.9,57,0.04,,---,0.13,VWS V14.00,2013-03-03 20:48:00,
2013-03-03 12:50:00,49.3,34.7,29.94,South,180,1.6,2.9,57,0.04,,---,0.13,VWS V14.00,2013-03-03 20:50:00,
2013-03-03 12:51:00,49.3,34.7,29.94,South,180,1.6,2.9,57,0.04,,---,0.13,VWS V14.00,2013-03-03 20:51:00,
2013-03-03 12:53:00,49.3,34.7,29.94,South,180,2.0,2.0,57,0.04,,---,0.13,VWS V14.00,2013-03-03 20:53:00,
2013-03-03 12:55:00,49.3,33.8,29.94,South,180,0.0,2.0,55,0.04,,---,0.13,VWS V14.00,2013-03-03 20:55:00,
2013-03-03 12:56:00,49.3,33.8,29.94,South,180,0.0,2.0,55,0.04,,---,0.13,VWS V14.00,2013-03-03 20:56:00,
2013-03-03 12:58:00,49.6,33.7,29.94,South,180,0.0,0.0,54,0.00,,---,0.13,VWS V14.00,2013-03-03 20:58:00,
2013-03-03 13:00:00,49.8,33.9,29.94,WSW,248,0.0,0.0,54,0.00,,---,0.13,VWS V14.00,2013-03-03 21:00:00,
2013-03-03 13:01:00,50.0,33.6,29.94,WSW,248,0.0,0.0,53,0.00,,---,0.13,VWS V14.00,2013-03-03 21:01:00,
2013-03-03 13:03:00,50.2,33.7,29.94,WSW,248,0.0,0.0,53,0.00,,---,0.13,VWS V14.00,2013-03-03 21:03:00,
2013-03-03 13:05:00,50.4,33.4,29.94,WSW,248,0.0,0.0,52,0.00,,---,0.13,VWS V14.00,2013-03-03 21:05:00,
2013-03-03 13:06:00,50.4,33.4,29.94,WSW,248,0.0,0.0,52,0.00,,---,0.13,VWS V14.00,2013-03-03 21:06:00,
2013-03-03 13:09:00,50.7,33.8,29.94,West,270,0.0,0.0,52,0.00,,---,0.13,VWS V14.00,2013-03-03 21:09:00,
2013-03-03 13:10:00,51.3,33.8,29.94,West,270,0.0,0.0,51,0.00,,---,0.13,VWS V14.00,2013-03-03 21:10:00,
2013-03-03 13:11:00,51.3,33.8,29.94,West,270,0.0,0.0,51,0.00,,---,0.13,VWS V14.00,2013-03-03 21:11:00,
2013-03-03 13:14:00,51.4,33.9,29.94,West,270,0.0,0.0,51,0.00,,---,0.13,VWS V14.00,2013-03-03 21:14:00,
2013-03-03 13:15:00,51.3,32.3,29.94,SW,225,0.0,4.3,48,0.00,,---,0.13,VWS V14.00,2013-03-03 21:15:00,
2013-03-03 13:16:00,51.4,33.9,29.94,NNE,22,0.0,0.0,51,0.00,,---,0.13,VWS V14.00,2013-03-03 21:16:00,
2013-03-03 13:19:00,51.4,33.4,29.94,NNE,22,0.0,0.0,50,0.00,,---,0.13,VWS V14.00,2013-03-03 21:19:00,
2013-03-03 13:20:00,50.9,31.9,29.94,SW,225,3.4,3.6,48,0.00,,---,0.13,VWS V14.00,2013-03-03 21:20:00,
2013-03-03 13:21:00,50.9,32.4,29.94,WNW,292,0.0,0.0,49,0.00,,---,0.13,VWS V14.00,2013-03-03 21:21:00,
2013-03-03 13:24:00,50.7,31.8,29.94,NW,315,0.0,0.0,48,0.00,,---,0.13,VWS V14.00,2013-03-03 21:24:00,
2013-03-03 13:25:00,50.5,31.6,29.94,SSW,202,3.8,4.9,48,0.00,,---,0.13,VWS V14.00,2013-03-03 21:25:00,
2013-03-03 13:26:00,50.4,31.4,29.94,NW,315,0.0,0.0,48,0.00,,---,0.13,VWS V14.00,2013-03-03 21:26:00,
2013-03-03 13:29:00,50.2,31.8,29.94,WNW,292,0.0,1.1,49,0.00,,---,0.13,VWS V14.00,2013-03-03 21:29:00,
2013-03-03 13:30:00,49.8,31.9,29.94,SW,225,4.0,4.3,50,0.00,,---,0.13,VWS V14.00,2013-03-03 21:30:00,
2013-03-03 13:31:00,50.2,31.3,29.94,WNW,292,0.0,1.1,48,0.00,,---,0.13,VWS V14.00,2013-03-03 21:31:00,
2013-03-03 13:34:00,49.8,30.9,29.94,West,270,1.6,1.6,48,0.00,,---,0.13,VWS V14.00,2013-03-03 21:34:00,
2013-03-03 13:35:00,49.5,32.1,29.94,SSW,202,2.7,4.0,51,0.00,,---,0.13,VWS V14.00,2013-03-03 21:35:00,
2013-03-03 13:36:00,49.8,30.9,29.94,WNW,292,0.0,1.6,48,0.00,,---,0.13,VWS V14.00,2013-03-03 21:36:00,
2013-03-03 13:39:00,50.2,31.3,29.94,WNW,292,0.0,0.0,48,0.00,,---,0.13,VWS V14.00,2013-03-03 21:39:00,
2013-03-03 13:40:00,49.5,31.6,29.94,South,180,2.5,4.3,50,0.00,,---,0.13,VWS V14.00,2013-03-03 21:40:00,
2013-03-03 13:41:00,50.2,31.3,29.94,WNW,292,0.0,0.0,48,0.00,,---,0.13,VWS V14.00,2013-03-03 21:41:00,
2013-03-03 13:44:00,50.4,31.4,29.94,South,180,0.0,3.4,48,0.00,,---,0.13,VWS V14.00,2013-03-03 21:44:00,
2013-03-03 13:45:00,49.3,32.9,29.94,South,180,3.6,4.3,53,0.00,,---,0.13,VWS V14.00,2013-03-03 21:45:00,
2013-03-03 13:46:00,50.4,31.4,29.94,South,180,0.0,3.4,48,0.00,,---,0.13,VWS V14.00,2013-03-03 21:46:00,
2013-03-03 13:50:00,50.4,31.4,29.94,South,180,0.0,1.6,48,0.00,,---,0.13,VWS V14.00,2013-03-03 21:50:00,
2013-03-03 13:51:00,50.7,31.8,29.94,South,180,0.0,1.6,48,0.00,,---,0.13,VWS V14.00,2013-03-03 21:51:00,
2013-03-03 13:55:00,50.5,31.6,29.94,WSW,248,0.0,2.7,48,0.00,,---,0.13,VWS V14.00,2013-03-03 21:55:00,
2013-03-03 13:56:00,50.5,31.6,29.94,WSW,248,0.0,2.7,48,0.00,,---,0.13,VWS V14.00,2013-03-03 21:56:00,
2013-03-03 13:57:00,50.9,31.9,29.94,WSW,248,0.0,0.0,48,0.00,,---,0.13,VWS V14.00,2013-03-03 21:57:00,
2013-03-03 14:00:00,51.1,32.1,29.94,SE,135,0.0,0.0,48,0.00,,---,0.13,VWS V14.00,2013-03-03 22:00:00,
2013-03-03 14:01:00,51.1,32.1,29.94,South,180,0.0,0.0,48,0.00,,---,0.13,VWS V14.00,2013-03-03 22:01:00,
2013-03-03 14:02:00,51.1,32.1,29.94,South,180,0.0,0.0,48,0.00,,---,0.13,VWS V14.00,2013-03-03 22:02:00,
2013-03-03 14:05:00,51.1,32.1,29.94,SW,225,3.4,3.4,48,0.00,,---,0.13,VWS V14.00,2013-03-03 22:05:00,
2013-03-03 14:06:00,50.7,31.2,29.94,SW,225,0.0,0.0,47,0.00,,---,0.13,VWS V14.00,2013-03-03 22:06:00,
2013-03-03 14:07:00,50.9,31.4,29.94,SW,225,0.9,2.5,47,0.00,,---,0.13,VWS V14.00,2013-03-03 22:07:00,
2013-03-03 14:10:00,51.8,32.2,29.94,SW,225,0.0,2.5,47,0.00,,---,0.13,VWS V14.00,2013-03-03 22:10:00,
2013-03-03 14:11:00,51.8,32.2,29.94,SW,225,0.0,0.0,47,0.00,,---,0.13,VWS V14.00,2013-03-03 22:11:00,
2013-03-03 14:12:00,52.0,32.4,29.94,SW,225,3.6,3.6,47,0.00,,---,0.13,VWS V14.00,2013-03-03 22:12:00,
2013-03-03 14:15:00,51.4,31.9,29.94,WSW,248,0.0,4.3,47,0.00,,---,0.13,VWS V14.00,2013-03-03 22:15:00,
2013-03-03 14:16:00,51.3,32.3,29.94,SW,225,0.0,0.0,48,0.00,,---,0.13,VWS V14.00,2013-03-03 22:16:00,
2013-03-03 14:17:00,51.3,32.3,29.94,WSW,248,0.0,0.0,48,0.00,,---,0.13,VWS V14.00,2013-03-03 22:17:00,
2013-03-03 14:20:00,51.3,31.7,29.94,SW,225,2.7,3.6,47,0.00,,---,0.13,VWS V14.00,2013-03-03 22:20:00,
2013-03-03 14:21:00,50.9,31.9,29.94,SW,225,4.0,4.0,48,0.00,,---,0.13,VWS V14.00,2013-03-03 22:21:00,
2013-03-03 14:22:00,50.7,31.2,29.94,SW,225,0.0,4.7,47,0.00,,---,0.13,VWS V14.00,2013-03-03 22:22:00,
2013-03-03 14:23:00,50.7,31.8,29.94,SSW,202,2.5,4.7,48,0.00,,---,0.13,VWS V14.00,2013-03-03 22:23:00,
2013-03-03 14:25:00,50.0,33.6,29.94,SW,225,2.5,6.5,53,0.00,,---,0.13,VWS V14.00,2013-03-03 22:25:00,
2013-03-03 14:26:00,50.5,31.6,29.94,SSW,202,4.3,4.9,48,0.00,,---,0.13,VWS V14.00,2013-03-03 22:26:00,
2013-03-03 14:27:00,50.5,31.6,29.94,SSW,202,4.0,4.0,48,0.00,,---,0.13,VWS V14.00,2013-03-03 22:27:00,
2013-03-03 14:28:00,50.2,31.3,29.94,South,180,2.7,4.0,48,0.00,,---,0.13,VWS V14.00,2013-03-03 22:28:00,
2013-03-03 14:30:00,50.0,33.6,29.94,SW,225,4.9,5.6,53,0.00,,---,0.13,VWS V14.00,2013-03-03 22:30:00,
2013-03-03 14:31:00,49.8,31.9,29.94,SW,225,4.0,4.3,50,0.00,,---,0.13,VWS V14.00,2013-03-03 22:31:00,
2013-03-03 14:32:00,49.6,31.3,29.94,SW,225,4.0,4.0,49,0.00,,---,0.13,VWS V14.00,2013-03-03 22:32:00,
2013-03-03 14:33:00,49.6,31.3,29.94,SW,225,4.0,4.0,49,0.00,,---,0.13,VWS V14.00,2013-03-03 22:33:00,
2013-03-03 14:35:00,51.6,34.1,29.94,SSW,202,3.4,4.9,51,0.00,,---,0.13,VWS V14.00,2013-03-03 22:35:00,
2013-03-03 14:36:00,49.3,31.9,29.94,SW,225,2.2,2.7,51,0.00,,---,0.13,VWS V14.00,2013-03-03 22:36:00,
2013-03-03 14:37:00,49.3,32.4,29.94,SSW,202,4.0,4.0,52,0.00,,---,0.13,VWS V14.00,2013-03-03 22:37:00,
2013-03-03 14:38:00,49.3,31.9,29.94,SSW,202,2.9,4.0,51,0.00,,---,0.13,VWS V14.00,2013-03-03 22:38:00,
2013-03-03 14:40:00,52.5,33.4,29.94,South,180,4.9,6.0,48,0.00,,---,0.13,VWS V14.00,2013-03-03 22:40:00,
2013-03-03 14:41:00,49.3,31.5,29.94,South,180,3.1,3.1,50,0.00,,---,0.13,VWS V14.00,2013-03-03 22:41:00,
2013-03-03 14:42:00,49.3,31.5,29.94,South,180,3.6,3.6,50,0.00,,---,0.13,VWS V14.00,2013-03-03 22:42:00,
2013-03-03 14:43:00,49.5,32.1,29.94,SSE,158,3.1,3.6,51,0.00,,---,0.13,VWS V14.00,2013-03-03 22:43:00,
2013-03-03 14:45:00,52.2,32.6,29.94,WSW,248,3.6,6.0,47,0.00,,---,0.13,VWS V14.00,2013-03-03 22:45:00,
2013-03-03 14:46:00,49.3,32.9,29.94,SSW,202,3.1,4.3,53,0.00,,---,0.13,VWS V14.00,2013-03-03 22:46:00,
2013-03-03 14:47:00,49.3,32.4,29.94,South,180,2.7,4.3,52,0.00,,---,0.13,VWS V14.00,2013-03-03 22:47:00,
2013-03-03 14:48:00,49.3,32.4,29.94,SSE,158,5.6,5.6,52,0.00,,---,0.13,VWS V14.00,2013-03-03 22:48:00,
2013-03-03 14:50:00,51.6,32.6,29.94,SW,225,4.9,4.9,48,0.00,,---,0.13,VWS V14.00,2013-03-03 22:50:00,
2013-03-03 14:52:00,49.5,34.0,29.94,South,180,3.6,4.3,55,0.00,,---,0.13,VWS V14.00,2013-03-03 22:52:00,
2013-03-03 14:53:00,49.5,34.0,29.94,SSW,202,4.3,4.3,55,0.00,,---,0.13,VWS V14.00,2013-03-03 22:53:00,
2013-03-03 14:55:00,50.7,32.8,29.94,SW,225,4.9,5.8,50,0.00,,---,0.13,VWS V14.00,2013-03-03 22:55:00,
2013-03-03 14:57:00,49.6,33.2,29.94,SW,225,5.4,6.0,53,0.00,,---,0.13,VWS V14.00,2013-03-03 22:57:00,
2013-03-03 14:58:00,49.6,32.8,29.94,SW,225,4.7,6.0,52,0.00,,---,0.13,VWS V14.00,2013-03-03 22:58:00,
2013-03-03 15:02:00,49.6,33.2,29.94,SSW,202,3.4,3.8,53,0.00,,---,0.13,VWS V14.00,2013-03-03 23:02:00,
2013-03-03 15:03:00,49.6,33.7,29.94,SSW,202,4.9,4.9,54,0.00,,---,0.13,VWS V14.00,2013-03-03 23:03:00,
2013-03-03 15:05:00,51.1,32.1,29.91,SW,225,3.4,6.0,48,0.00,,---,0.13,VWS V14.00,2013-03-03 23:05:00,
2013-03-03 15:07:00,49.6,33.7,29.94,SSW,202,5.4,5.4,54,0.00,,---,0.13,VWS V14.00,2013-03-03 23:07:00,
2013-03-03 15:08:00,49.6,33.7,29.94,SSW,202,4.3,5.4,54,0.00,,---,0.13,VWS V14.00,2013-03-03 23:08:00,
2013-03-03 15:12:00,49.5,33.1,29.94,SW,225,3.4,5.4,53,0.00,,---,0.13,VWS V14.00,2013-03-03 23:12:00,
2013-03-03 15:13:00,49.5,34.0,29.94,SW,225,4.0,5.6,55,0.00,,---,0.13,VWS V14.00,2013-03-03 23:13:00,
2013-03-03 15:15:00,50.9,32.9,29.91,SSW,202,6.3,6.5,50,0.00,,---,0.13,VWS V14.00,2013-03-03 23:15:00,
2013-03-03 15:17:00,49.5,33.1,29.94,SW,225,3.4,5.6,53,0.00,,---,0.13,VWS V14.00,2013-03-03 23:17:00,
2013-03-03 15:18:00,49.5,34.0,29.94,SSW,202,3.1,5.6,55,0.00,,---,0.13,VWS V14.00,2013-03-03 23:18:00,
2013-03-03 15:20:00,51.8,32.2,29.91,SW,225,5.6,6.9,47,0.00,,---,0.13,VWS V14.00,2013-03-03 23:20:00,
2013-03-03 15:22:00,49.8,34.8,29.94,South,180,4.9,5.4,56,0.00,,---,0.13,VWS V14.00,2013-03-03 23:22:00,
2013-03-03 15:23:00,49.6,34.2,29.94,SSW,202,6.5,6.5,55,0.00,,---,0.13,VWS V14.00,2013-03-03 23:23:00,
2013-03-03 15:24:00,49.6,34.2,29.94,SSW,202,6.5,6.5,55,0.00,,---,0.13,VWS V14.00,2013-03-03 23:24:00,
2013-03-03 15:25:00,52.0,31.9,29.91,SSW,202,5.4,5.8,46,0.00,,---,0.13,VWS V14.00,2013-03-03 23:25:00,
2013-03-03 15:27:00,50.0,33.6,29.94,SW,225,3.1,3.1,53,0.00,,---,0.13,VWS V14.00,2013-03-03 23:27:00,
2013-03-03 15:28:00,50.0,33.6,29.94,SW,225,3.1,3.1,53,0.00,,---,0.13,VWS V14.00,2013-03-03 23:28:00,
2013-03-03 15:29:00,50.0,33.6,29.94,SSW,202,5.6,5.6,53,0.00,,---,0.13,VWS V14.00,2013-03-03 23:29:00,
2013-03-03 15:30:00,51.8,32.2,29.91,SW,225,4.9,5.4,47,0.00,,---,0.13,VWS V14.00,2013-03-03 23:30:00,
2013-03-03 15:32:00,50.7,32.8,29.94,SW,225,3.6,4.9,50,0.00,,---,0.13,VWS V14.00,2013-03-03 23:32:00,
2013-03-03 15:33:00,50.7,32.8,29.94,SSW,202,3.4,4.9,50,0.00,,---,0.13,VWS V14.00,2013-03-03 23:33:00,
2013-03-03 15:34:00,50.7,32.8,29.94,South,180,1.6,4.9,50,0.00,,---,0.13,VWS V14.00,2013-03-03 23:34:00,
2013-03-03 15:35:00,51.8,32.2,29.91,SSW,202,4.0,4.9,47,0.00,,---,0.13,VWS V14.00,2013-03-03 23:35:00,
2013-03-03 15:37:00,51.6,34.1,29.94,SW,225,4.3,4.3,51,0.00,,---,0.13,VWS V14.00,2013-03-03 23:37:00,
2013-03-03 15:38:00,52.2,34.1,29.94,SSW,202,4.0,4.3,50,0.00,,---,0.13,VWS V14.00,2013-03-03 23:38:00,
2013-03-03 15:39:00,52.3,33.2,29.94,South,180,5.6,6.0,48,0.00,,---,0.13,VWS V14.00,2013-03-03 23:39:00,
2013-03-03 15:40:00,49.8,32.4,29.91,SSW,202,2.0,4.9,51,0.00,,---,0.13,VWS V14.00,2013-03-03 23:40:00,
2013-03-03 15:43:00,52.5,33.4,29.94,WSW,248,0.0,4.9,48,0.00,,---,0.13,VWS V14.00,2013-03-03 23:43:00,
2013-03-03 15:44:00,52.5,33.4,29.94,WSW,248,0.0,4.9,48,0.00,,---,0.13,VWS V14.00,2013-03-03 23:44:00,
2013-03-03 15:45:00,50.2,32.3,29.91,SW,225,1.6,4.3,50,0.00,,---,0.13,VWS V14.00,2013-03-03 23:45:00,
2013-03-03 15:48:00,52.2,32.6,29.94,SW,225,3.1,3.6,47,0.00,,---,0.13,VWS V14.00,2013-03-03 23:48:00,
2013-03-03 15:49:00,51.6,32.6,29.94,SW,225,3.4,3.6,48,0.00,,---,0.13,VWS V14.00,2013-03-03 23:49:00,
2013-03-03 15:50:00,50.5,32.1,29.91,WSW,248,3.8,5.4,49,0.00,,---,0.13,VWS V14.00,2013-03-03 23:50:00,
2013-03-03 15:53:00,51.3,31.7,29.94,SW,225,4.3,5.4,47,0.00,,---,0.13,VWS V14.00,2013-03-03 23:53:00,
2013-03-03 15:54:00,50.7,32.8,29.94,SW,225,4.9,5.8,50,0.00,,---,0.13,VWS V14.00,2013-03-03 23:54:00,
2013-03-03 15:55:00,51.4,32.4,29.91,SW,225,3.6,5.8,48,0.00,,---,0.13,VWS V14.00,2013-03-03 23:55:00,
2013-03-03 15:58:00,50.7,32.3,29.94,SSW,202,3.8,4.9,49,0.00,,---,0.13,VWS V14.00,2013-03-03 23:58:00,
2013-03-03 15:59:00,50.7,32.8,29.91,South,180,4.3,4.9,50,0.00,,---,0.13,VWS V14.00,2013-03-03 23:59:00,
2013-03-03 16:00:00,51.4,31.9,29.91,WSW,248,4.9,6.0,47,0.00,,---,0.13,VWS V14.00,2013-03-04 00:00:00,
2013-03-03 16:03:00,51.3,32.8,29.91,SSW,202,6.0,6.0,49,0.00,,---,0.13,VWS V14.00,2013-03-04 00:03:00,
2013-03-03 16:04:00,51.1,32.6,29.91,SSW,202,4.3,6.0,49,0.00,,---,0.13,VWS V14.00,2013-03-04 00:04:00,
2013-03-03 16:05:00,51.3,32.3,29.91,WSW,248,4.7,6.5,48,0.00,,---,0.13,VWS V14.00,2013-03-04 00:05:00,
2013-03-03 16:08:00,51.1,32.6,29.91,SSW,202,4.9,5.6,49,0.00,,---,0.13,VWS V14.00,2013-03-04 00:08:00,
2013-03-03 16:10:00,50.9,32.4,29.91,SW,225,5.4,5.6,49,0.00,,---,0.13,VWS V14.00,2013-03-04 00:10:00,
2013-03-03 16:13:00,50.5,31.6,29.91,SSW,202,3.4,6.5,48,0.00,,---,0.13,VWS V14.00,2013-03-04 00:13:00,
2013-03-03 16:15:00,50.9,32.9,29.91,SSW,202,6.3,6.5,50,0.00,,---,0.13,VWS V14.00,2013-03-04 00:15:00,
2013-03-03 16:18:00,51.4,32.9,29.91,SW,225,4.0,6.3,49,0.00,,---,0.13,VWS V14.00,2013-03-04 00:18:00,
2013-03-03 16:19:00,51.6,32.6,29.91,SW,225,4.3,6.3,48,0.00,,---,0.13,VWS V14.00,2013-03-04 00:19:00,
2013-03-03 16:20:00,51.8,32.2,29.91,SW,225,4.9,6.9,47,0.00,,---,0.13,VWS V14.00,2013-03-04 00:20:00,
2013-03-03 16:23:00,52.2,32.6,29.91,SW,225,4.0,5.8,47,0.00,,---,0.13,VWS V14.00,2013-03-04 00:23:00,
2013-03-03 16:24:00,52.2,32.6,29.91,SSW,202,4.0,5.8,47,0.00,,---,0.13,VWS V14.00,2013-03-04 00:24:00,
2013-03-03 16:25:00,52.2,32.6,29.91,South,180,4.9,5.8,47,0.00,,---,0.13,VWS V14.00,2013-03-04 00:25:00,
2013-03-03 16:28:00,52.0,32.4,29.91,SSW,202,3.6,5.4,47,0.00,,---,0.13,VWS V14.00,2013-03-04 00:28:00,
2013-03-03 16:29:00,52.0,32.4,29.91,SW,225,3.8,5.4,47,0.00,,---,0.13,VWS V14.00,2013-03-04 00:29:00,
2013-03-03 16:30:00,51.8,32.2,29.91,SW,225,4.9,5.4,47,0.00,,---,0.13,VWS V14.00,2013-03-04 00:30:00,
2013-03-03 16:33:00,51.8,32.2,29.91,SSW,202,3.4,4.9,47,0.00,,---,0.13,VWS V14.00,2013-03-04 00:33:00,
2013-03-03 16:34:00,51.8,32.2,29.91,SW,225,4.3,4.9,47,0.00,,---,0.13,VWS V14.00,2013-03-04 00:34:00,
2013-03-03 16:35:00,51.8,32.2,29.91,SW,225,3.4,4.9,47,0.00,,---,0.13,VWS V14.00,2013-03-04 00:35:00,
2013-03-03 16:38:00,50.0,31.6,29.91,SSW,202,2.7,4.9,49,0.00,,---,0.13,VWS V14.00,2013-03-04 00:38:00,
2013-03-03 16:39:00,50.0,31.6,29.91,SSW,202,2.7,4.9,49,0.00,,---,0.13,VWS V14.00,2013-03-04 00:39:00,
2013-03-03 16:40:00,49.8,32.4,29.91,SSW,202,2.0,4.9,51,0.00,,---,0.13,VWS V14.00,2013-03-04 00:40:00,
2013-03-03 16:43:00,49.8,32.4,29.91,SW,225,3.8,4.3,51,0.00,,---,0.13,VWS V14.00,2013-03-04 00:43:00,
2013-03-03 16:44:00,49.8,32.4,29.91,SW,225,3.8,4.3,51,0.00,,---,0.13,VWS V14.00,2013-03-04 00:44:00,
2013-03-03 16:45:00,49.8,32.4,29.91,SW,225,1.1,4.3,51,0.00,,---,0.13,VWS V14.00,2013-03-04 00:45:00,
2013-03-03 16:48:00,50.4,31.9,29.91,SW,225,4.9,4.9,49,0.00,,---,0.13,VWS V14.00,2013-03-04 00:48:00,
2013-03-03 16:49:00,50.4,31.9,29.91,SW,225,4.9,4.9,49,0.00,,---,0.13,VWS V14.00,2013-03-04 00:49:00,
2013-03-03 16:50:00,50.5,32.1,29.91,SW,225,4.0,5.4,49,0.00,,---,0.13,VWS V14.00,2013-03-04 00:50:00,
2013-03-03 16:54:00,51.1,31.6,29.91,SW,225,5.6,5.8,47,0.00,,---,0.13,VWS V14.00,2013-03-04 00:54:00,
2013-03-03 16:55:00,46.2,33.5,29.94,WSW,248,4.3,5.4,61,0.00,,---,0.13,VWS V14.00,2013-03-04 00:55:00,
2013-03-03 16:56:00,51.4,32.4,29.91,SW,225,3.1,5.8,48,0.00,,---,0.13,VWS V14.00,2013-03-04 00:56:00,
2013-03-03 16:59:00,51.4,32.4,29.91,SW,225,6.0,6.0,48,0.00,,---,0.13,VWS V14.00,2013-03-04 00:59:00,
2013-03-03 17:00:00,51.6,31.5,29.91,WSW,248,6.0,6.0,46,0.00,,---,0.13,VWS V14.00,2013-03-04 01:00:00,
2013-03-03 17:04:00,51.4,31.9,29.91,SW,225,3.8,6.5,47,0.00,,---,0.13,VWS V14.00,2013-03-04 01:04:00,
2013-03-03 17:05:00,51.3,31.7,29.91,SW,225,3.6,6.5,47,0.00,,---,0.13,VWS V14.00,2013-03-04 01:05:00,
2013-03-03 17:06:00,51.3,32.3,29.91,WSW,248,4.7,6.5,48,0.00,,---,0.13,VWS V14.00,2013-03-04 01:06:00,
2013-03-03 17:09:00,50.9,31.4,29.91,SW,225,4.9,6.5,47,0.00,,---,0.13,VWS V14.00,2013-03-04 01:09:00,
2013-03-03 17:10:00,50.9,31.4,29.91,WSW,248,6.5,6.5,47,0.00,,---,0.13,VWS V14.00,2013-03-04 01:10:00,
2013-03-03 17:11:00,50.9,31.4,29.91,SW,225,5.6,5.8,47,0.00,,---,0.13,VWS V14.00,2013-03-04 01:11:00,
2013-03-03 17:14:00,49.8,30.9,29.94,SW,225,4.0,6.5,48,0.00,,---,0.13,VWS V14.00,2013-03-04 01:14:00,
2013-03-03 17:15:00,49.5,31.1,29.94,SW,225,4.9,6.5,49,0.00,,---,0.13,VWS V14.00,2013-03-04 01:15:00,
2013-03-03 17:16:00,49.3,31.5,29.94,SW,225,6.0,6.0,50,0.00,,---,0.13,VWS V14.00,2013-03-04 01:16:00,
2013-03-03 17:19:00,48.9,31.1,29.94,WSW,248,4.7,6.0,50,0.00,,---,0.13,VWS V14.00,2013-03-04 01:19:00,
2013-03-03 17:20:00,48.9,31.1,29.94,SW,225,4.9,6.0,50,0.00,,---,0.13,VWS V14.00,2013-03-04 01:20:00,
2013-03-03 17:21:00,48.9,31.1,29.94,SW,225,6.0,6.0,50,0.00,,---,0.13,VWS V14.00,2013-03-04 01:21:00,
2013-03-03 17:24:00,48.9,31.1,29.94,SW,225,4.9,6.0,50,0.00,,---,0.13,VWS V14.00,2013-03-04 01:24:00,
2013-03-03 17:25:00,48.2,31.9,29.94,SW,225,4.9,6.0,53,0.00,,---,0.13,VWS V14.00,2013-03-04 01:25:00,
2013-03-03 17:26:00,48.0,32.2,29.94,SW,225,5.4,6.3,54,0.00,,---,0.13,VWS V14.00,2013-03-04 01:26:00,
2013-03-03 17:29:00,47.8,31.5,29.94,WSW,248,6.3,6.5,53,0.00,,---,0.13,VWS V14.00,2013-03-04 01:29:00,
2013-03-03 17:30:00,47.7,31.9,29.94,SW,225,4.3,6.5,54,0.00,,---,0.13,VWS V14.00,2013-03-04 01:30:00,
2013-03-03 17:31:00,47.7,32.3,29.94,SW,225,4.9,4.9,55,0.00,,---,0.13,VWS V14.00,2013-03-04 01:31:00,
2013-03-03 17:34:00,47.5,32.6,29.94,SW,225,0.0,5.4,56,0.00,,---,0.13,VWS V14.00,2013-03-04 01:34:00,
2013-03-03 17:35:00,47.5,32.6,29.94,SW,225,0.0,5.4,56,0.00,,---,0.13,VWS V14.00,2013-03-04 01:35:00,
2013-03-03 17:36:00,47.3,32.8,29.94,SW,225,3.6,3.6,57,0.00,,---,0.13,VWS V14.00,2013-03-04 01:36:00,
2013-03-03 17:39:00,47.3,32.8,29.94,SW,225,4.7,5.6,57,0.00,,---,0.13,VWS V14.00,2013-03-04 01:39:00,
2013-03-03 17:40:00,47.1,33.1,29.94,WSW,248,3.8,5.6,58,0.00,,---,0.13,VWS V14.00,2013-03-04 01:40:00,
2013-03-03 17:41:00,47.1,33.1,29.94,SW,225,4.0,5.6,58,0.00,,---,0.13,VWS V14.00,2013-03-04 01:41:00,
2013-03-03 17:44:00,46.9,33.0,29.94,SW,225,4.3,5.6,58,0.00,,---,0.13,VWS V14.00,2013-03-04 01:44:00,
2013-03-03 17:45:00,46.8,32.8,29.94,WSW,248,4.0,5.6,58,0.00,,---,0.13,VWS V14.00,2013-03-04 01:45:00,
2013-03-03 17:46:00,46.8,32.8,29.94,WSW,248,4.3,4.3,58,0.00,,---,0.13,VWS V14.00,2013-03-04 01:46:00,
2013-03-03 17:49:00,46.6,33.0,29.94,SW,225,4.0,4.9,59,0.00,,---,0.13,VWS V14.00,2013-03-04 01:49:00,
2013-03-03 17:50:00,46.6,33.0,29.94,SW,225,5.8,5.8,59,0.00,,---,0.13,VWS V14.00,2013-03-04 01:50:00,
2013-03-03 17:51:00,46.6,33.0,29.94,SW,225,4.0,6.3,59,0.00,,---,0.13,VWS V14.00,2013-03-04 01:51:00,
2013-03-03 17:55:00,46.2,33.5,29.94,WSW,248,3.8,5.4,61,0.00,,---,0.13,VWS V14.00,2013-03-04 01:55:00,
2013-03-03 17:56:00,46.2,33.5,29.94,WSW,248,4.3,5.4,61,0.00,,---,0.13,VWS V14.00,2013-03-04 01:56:00,
2013-03-03 18:00:00,46.0,33.4,29.94,WSW,248,0.0,4.3,61,0.00,,---,0.13,VWS V14.00,2013-03-04 02:00:00,
2013-03-03 18:01:00,45.9,33.2,29.94,WSW,248,0.0,4.3,61,0.00,,---,0.13,VWS V14.00,2013-03-04 02:01:00,
2013-03-03 18:05:00,45.7,33.0,29.94,WSW,248,0.0,0.0,61,0.00,,---,0.13,VWS V14.00,2013-03-04 02:05:00,
2013-03-03 18:06:00,45.5,32.8,29.94,WSW,248,0.0,0.0,61,0.00,,---,0.13,VWS V14.00,2013-03-04 02:06:00,
2013-03-03 18:10:00,45.3,33.9,29.94,WSW,248,0.0,0.0,64,0.00,,---,0.13,VWS V14.00,2013-03-04 02:10:00,
2013-03-03 18:11:00,45.3,33.9,29.94,SW,225,0.0,0.0,64,0.00,,---,0.13,VWS V14.00,2013-03-04 02:11:00,
2013-03-03 18:12:00,45.3,33.9,29.94,WSW,248,0.0,0.0,64,0.00,,---,0.13,VWS V14.00,2013-03-04 02:12:00,
2013-03-03 18:15:00,45.3,34.6,29.94,WSW,248,0.0,0.0,66,0.00,,---,0.13,VWS V14.00,2013-03-04 02:15:00,
2013-03-03 18:16:00,45.3,34.6,29.94,West,270,0.0,0.0,66,0.00,,---,0.13,VWS V14.00,2013-03-04 02:16:00,
2013-03-03 18:17:00,45.3,34.6,29.94,West,270,0.0,0.0,66,0.00,,---,0.13,VWS V14.00,2013-03-04 02:17:00,
2013-03-03 18:20:00,45.1,34.5,29.94,West,270,1.6,2.7,66,0.00,,---,0.13,VWS V14.00,2013-03-04 02:20:00,
2013-03-03 18:21:00,45.1,34.5,29.94,West,270,3.1,3.1,66,0.00,,---,0.13,VWS V14.00,2013-03-04 02:21:00,
2013-03-03 18:22:00,45.1,34.8,29.94,West,270,0.0,3.8,67,0.00,,---,0.13,VWS V14.00,2013-03-04 02:22:00,
2013-03-03 18:25:00,45.1,34.5,29.94,WSW,248,0.0,3.8,66,0.00,,---,0.13,VWS V14.00,2013-03-04 02:25:00,
2013-03-03 18:26:00,45.1,34.5,29.94,WSW,248,0.0,0.0,66,0.00,,---,0.13,VWS V14.00,2013-03-04 02:26:00,
2013-03-03 18:27:00,45.1,34.8,29.94,WSW,248,6.5,6.5,67,0.00,,---,0.13,VWS V14.00,2013-03-04 02:27:00,
2013-03-03 18:30:00,45.3,35.0,29.94,SW,225,4.9,6.5,67,0.00,,---,0.13,VWS V14.00,2013-03-04 02:30:00,
2013-03-03 18:31:00,45.3,35.0,29.94,SW,225,4.0,6.5,67,0.00,,---,0.13,VWS V14.00,2013-03-04 02:31:00,
2013-03-03 18:32:00,45.3,35.4,29.94,SW,225,0.0,6.5,68,0.00,,---,0.13,VWS V14.00,2013-03-04 02:32:00,
2013-03-03 18:35:00,44.1,36.3,29.91,WSW,248,0.0,4.3,74,0.00,,---,0.13,VWS V14.00,2013-03-04 02:35:00,
2013-03-03 18:36:00,45.1,35.6,29.94,SW,225,4.0,6.5,69,0.00,,---,0.13,VWS V14.00,2013-03-04 02:36:00,
2013-03-03 18:37:00,45.1,35.6,29.94,SW,225,4.9,4.9,69,0.00,,---,0.13,VWS V14.00,2013-03-04 02:37:00,
2013-03-03 18:38:00,45.1,36.0,29.94,SW,225,4.9,4.9,70,0.00,,---,0.13,VWS V14.00,2013-03-04 02:38:00,
2013-03-03 18:40:00,43.9,36.5,29.91,SW,225,4.3,4.3,75,0.00,,---,0.13,VWS V14.00,2013-03-04 02:40:00,
2013-03-03 18:41:00,45.1,36.0,29.94,SW,225,4.3,4.3,70,0.00,,---,0.13,VWS V14.00,2013-03-04 02:41:00,
2013-03-03 18:42:00,45.1,36.0,29.94,SW,225,3.1,4.7,70,0.00,,---,0.13,VWS V14.00,2013-03-04 02:42:00,
2013-03-03 18:43:00,45.1,36.0,29.94,SW,225,4.3,4.7,70,0.00,,---,0.13,VWS V14.00,2013-03-04 02:43:00,
2013-03-03 18:45:00,43.9,36.5,29.94,SW,225,4.0,4.3,75,0.00,,---,0.13,VWS V14.00,2013-03-04 02:45:00,
2013-03-03 18:46:00,45.1,36.0,29.94,SW,225,4.0,4.7,70,0.00,,---,0.13,VWS V14.00,2013-03-04 02:46:00,
2013-03-03 18:47:00,45.0,36.1,29.94,SW,225,3.8,3.8,71,0.00,,---,0.13,VWS V14.00,2013-03-04 02:47:00,
2013-03-03 18:48:00,45.0,36.1,29.94,SW,225,3.1,4.3,71,0.00,,---,0.13,VWS V14.00,2013-03-04 02:48:00,
2013-03-03 18:50:00,43.7,36.3,29.94,SW,225,3.4,4.0,75,0.00,,---,0.13,VWS V14.00,2013-03-04 02:50:00,
2013-03-03 18:51:00,44.8,36.0,29.94,SW,225,3.8,3.8,71,0.00,,---,0.13,VWS V14.00,2013-03-04 02:51:00,
2013-03-03 18:52:00,44.8,36.0,29.94,SW,225,3.8,3.8,71,0.00,,---,0.13,VWS V14.00,2013-03-04 02:52:00,
2013-03-03 18:53:00,44.8,36.0,29.94,SW,225,2.0,3.8,71,0.00,,---,0.13,VWS V14.00,2013-03-04 02:53:00,
2013-03-03 18:55:00,43.3,36.0,29.94,SW,225,0.0,3.4,75,0.00,,---,0.13,VWS V14.00,2013-03-04 02:55:00,
2013-03-03 18:57:00,44.6,36.2,29.94,SSW,202,4.3,4.3,72,0.00,,---,0.13,VWS V14.00,2013-03-04 02:57:00,
2013-03-03 18:58:00,44.6,36.2,29.94,SW,225,4.0,4.9,72,0.00,,---,0.13,VWS V14.00,2013-03-04 02:58:00,
2013-03-03 19:00:00,43.2,35.8,29.94,West,270,0.0,2.5,75,0.00,,---,0.13,VWS V14.00,2013-03-04 03:00:00,
2013-03-03 19:02:00,44.6,35.8,29.94,SW,225,4.3,4.9,71,0.00,,---,0.13,VWS V14.00,2013-03-04 03:02:00,
2013-03-03 19:03:00,44.6,35.8,29.94,SW,225,4.9,4.9,71,0.00,,---,0.13,VWS V14.00,2013-03-04 03:03:00,
2013-03-03 19:07:00,44.6,35.8,29.94,SW,225,3.6,6.0,71,0.00,,---,0.13,VWS V14.00,2013-03-04 03:07:00,
2013-03-03 19:08:00,44.6,35.8,29.94,SW,225,5.8,6.0,71,0.00,,---,0.13,VWS V14.00,2013-03-04 03:08:00,
2013-03-03 19:12:00,44.6,35.8,29.94,SW,225,4.3,4.9,71,0.00,,---,0.13,VWS V14.00,2013-03-04 03:12:00,
2013-03-03 19:13:00,44.4,36.0,29.94,SW,225,3.8,4.9,72,0.00,,---,0.13,VWS V14.00,2013-03-04 03:13:00,
2013-03-03 19:14:00,44.4,36.0,29.94,WSW,248,4.3,4.9,72,0.00,,---,0.13,VWS V14.00,2013-03-04 03:14:00,
2013-03-03 19:15:00,42.8,36.1,29.94,WNW,292,0.0,3.6,77,0.00,,---,0.13,VWS V14.00,2013-03-04 03:15:00,
2013-03-03 19:17:00,44.4,36.3,29.94,WSW,248,3.8,3.8,73,0.00,,---,0.13,VWS V14.00,2013-03-04 03:17:00,
2013-03-03 19:18:00,44.4,36.3,29.94,WSW,248,4.3,4.3,73,0.00,,---,0.13,VWS V14.00,2013-03-04 03:18:00,
2013-03-03 19:19:00,44.4,36.3,29.94,WSW,248,4.3,4.3,73,0.00,,---,0.13,VWS V14.00,2013-03-04 03:19:00,
2013-03-03 19:20:00,42.8,36.1,29.94,WNW,292,0.0,0.0,77,0.00,,---,0.13,VWS V14.00,2013-03-04 03:20:00,
2013-03-03 19:22:00,44.2,36.2,29.94,WSW,248,0.0,5.4,73,0.00,,---,0.13,VWS V14.00,2013-03-04 03:22:00,
2013-03-03 19:23:00,44.2,36.2,29.94,WSW,248,4.0,5.4,73,0.00,,---,0.13,VWS V14.00,2013-03-04 03:23:00,
2013-03-03 19:24:00,44.2,36.2,29.94,WSW,248,4.3,5.4,73,0.00,,---,0.13,VWS V14.00,2013-03-04 03:24:00,
2013-03-03 19:27:00,44.2,36.2,29.91,WSW,248,4.0,5.4,73,0.00,,---,0.13,VWS V14.00,2013-03-04 03:27:00,
2013-03-03 19:28:00,44.2,36.5,29.91,SW,225,3.6,5.4,74,0.00,,---,0.13,VWS V14.00,2013-03-04 03:28:00,
2013-03-03 19:29:00,44.2,36.5,29.91,SW,225,4.3,5.6,74,0.00,,---,0.13,VWS V14.00,2013-03-04 03:29:00,
2013-03-03 19:30:00,42.8,35.4,29.94,WSW,248,0.0,2.2,75,0.00,,---,0.13,VWS V14.00,2013-03-04 03:30:00,
2013-03-03 19:32:00,44.2,36.5,29.91,WSW,248,3.4,4.3,74,0.00,,---,0.13,VWS V14.00,2013-03-04 03:32:00,
2013-03-03 19:33:00,44.1,36.3,29.91,WSW,248,3.4,4.3,74,0.00,,---,0.13,VWS V14.00,2013-03-04 03:33:00,
2013-03-03 19:34:00,44.1,36.3,29.91,WSW,248,0.0,4.3,74,0.00,,---,0.13,VWS V14.00,2013-03-04 03:34:00,
2013-03-03 19:35:00,43.0,36.0,29.94,WSW,248,0.0,3.4,76,0.00,,---,0.13,VWS V14.00,2013-03-04 03:35:00,
2013-03-03 19:38:00,44.1,36.3,29.91,WSW,248,0.0,2.5,74,0.00,,---,0.13,VWS V14.00,2013-03-04 03:38:00,
2013-03-03 19:39:00,43.9,36.1,29.91,SW,225,3.4,3.4,74,0.00,,---,0.13,VWS V14.00,2013-03-04 03:39:00,
2013-03-03 19:43:00,43.9,36.5,29.94,WSW,248,4.3,4.3,75,0.00,,---,0.13,VWS V14.00,2013-03-04 03:43:00,
2013-03-03 19:44:00,43.9,36.5,29.94,SW,225,3.6,4.3,75,0.00,,---,0.13,VWS V14.00,2013-03-04 03:44:00,
2013-03-03 19:45:00,43.3,37.6,29.94,SW,225,4.5,5.4,80,0.00,,---,0.13,VWS V14.00,2013-03-04 03:45:00,
2013-03-03 19:48:00,43.7,36.3,29.94,SW,225,4.0,4.0,75,0.00,,---,0.13,VWS V14.00,2013-03-04 03:48:00,
2013-03-03 19:49:00,43.7,36.3,29.94,SW,225,3.8,4.0,75,0.00,,---,0.13,VWS V14.00,2013-03-04 03:49:00,
2013-03-03 19:50:00,43.3,37.6,29.94,SW,225,4.5,5.8,80,0.00,,---,0.13,VWS V14.00,2013-03-04 03:50:00,
2013-03-03 19:53:00,43.7,36.3,29.94,SW,225,0.0,3.4,75,0.00,,---,0.13,VWS V14.00,2013-03-04 03:53:00,
2013-03-03 19:55:00,43.3,36.0,29.94,SW,225,0.0,3.4,75,0.00,,---,0.13,VWS V14.00,2013-03-04 03:55:00,
2013-03-03 19:58:00,43.2,35.8,29.94,SW,225,0.0,2.5,75,0.00,,---,0.13,VWS V14.00,2013-03-04 03:58:00,
2013-03-03 20:00:00,43.2,35.8,29.94,WSW,248,0.0,2.5,75,0.00,,---,0.13,VWS V14.00,2013-03-04 04:00:00,
2013-03-03 20:03:00,42.8,35.4,29.94,West,270,0.0,0.0,75,0.00,,---,0.13,VWS V14.00,2013-03-04 04:03:00,
2013-03-03 20:04:00,42.8,35.4,29.94,West,270,0.0,0.0,75,0.00,,---,0.13,VWS V14.00,2013-03-04 04:04:00,
2013-03-03 20:05:00,42.8,35.4,29.94,West,270,0.0,0.0,75,0.00,,---,0.13,VWS V14.00,2013-03-04 04:05:00,
2013-03-03 20:08:00,42.8,35.4,29.94,WSW,248,3.1,3.1,75,0.00,,---,0.13,VWS V14.00,2013-03-04 04:08:00,
2013-03-03 20:09:00,42.8,35.4,29.94,West,270,0.0,3.1,75,0.00,,---,0.13,VWS V14.00,2013-03-04 04:09:00,
2013-03-03 20:10:00,42.8,35.8,29.94,WNW,292,3.6,3.6,76,0.00,,---,0.13,VWS V14.00,2013-03-04 04:10:00,
2013-03-03 20:13:00,42.8,35.8,29.94,NW,315,0.0,3.6,76,0.00,,---,0.13,VWS V14.00,2013-03-04 04:13:00,
2013-03-03 20:14:00,42.6,35.9,29.94,WNW,292,0.0,3.6,77,0.00,,---,0.13,VWS V14.00,2013-03-04 04:14:00,
2013-03-03 20:15:00,42.6,35.9,29.94,WNW,292,0.0,3.6,77,0.00,,---,0.13,VWS V14.00,2013-03-04 04:15:00,
2013-03-03 20:18:00,42.8,36.1,29.94,WNW,292,0.0,0.0,77,0.00,,---,0.13,VWS V14.00,2013-03-04 04:18:00,
2013-03-03 20:19:00,42.8,36.1,29.94,WNW,292,0.0,0.0,77,0.00,,---,0.13,VWS V14.00,2013-03-04 04:19:00,
2013-03-03 20:20:00,42.8,36.1,29.94,NW,315,0.0,0.0,77,0.00,,---,0.13,VWS V14.00,2013-03-04 04:20:00,
2013-03-03 20:23:00,43.0,36.0,29.94,WNW,292,0.0,2.0,76,0.00,,---,0.13,VWS V14.00,2013-03-04 04:23:00,
2013-03-03 20:24:00,43.0,36.0,29.94,WNW,292,2.2,2.2,76,0.00,,---,0.13,VWS V14.00,2013-03-04 04:24:00,
2013-03-03 20:25:00,43.0,36.0,29.94,WNW,292,0.0,2.2,76,0.00,,---,0.13,VWS V14.00,2013-03-04 04:25:00,
2013-03-03 20:29:00,43.0,36.0,29.94,WNW,292,0.0,2.2,76,0.00,,---,0.13,VWS V14.00,2013-03-04 04:29:00,
2013-03-03 20:30:00,42.8,35.4,29.94,WSW,248,0.0,2.2,75,0.00,,---,0.13,VWS V14.00,2013-03-04 04:30:00,
2013-03-03 20:34:00,42.8,35.4,29.94,WSW,248,0.0,0.0,75,0.00,,---,0.13,VWS V14.00,2013-03-04 04:34:00,
2013-03-03 20:35:00,42.8,35.4,29.94,WSW,248,0.0,3.4,75,0.00,,---,0.13,VWS V14.00,2013-03-04 04:35:00,
2013-03-03 20:39:00,43.0,36.0,29.94,WSW,248,0.0,0.0,76,0.00,,---,0.13,VWS V14.00,2013-03-04 04:39:00,
2013-03-03 20:40:00,43.0,36.0,29.94,SW,225,2.9,3.8,76,0.00,,---,0.13,VWS V14.00,2013-03-04 04:40:00,
2013-03-03 20:44:00,43.0,36.0,29.94,SW,225,4.7,4.7,76,0.00,,---,0.13,VWS V14.00,2013-03-04 04:44:00,
2013-03-03 20:45:00,43.0,36.0,29.94,SW,225,4.3,5.4,76,0.00,,---,0.13,VWS V14.00,2013-03-04 04:45:00,
2013-03-03 20:49:00,43.3,37.6,29.94,SW,225,3.6,5.8,80,0.00,,---,0.13,VWS V14.00,2013-03-04 04:49:00,
2013-03-03 20:50:00,43.3,37.6,29.94,SW,225,3.6,5.8,80,0.00,,---,0.13,VWS V14.00,2013-03-04 04:50:00,
2013-03-03 20:54:00,43.2,37.1,29.94,SW,225,4.7,5.8,79,0.00,,---,0.13,VWS V14.00,2013-03-04 04:54:00,
2013-03-03 20:55:00,43.2,37.1,29.94,WSW,248,4.0,5.8,79,0.00,,---,0.13,VWS V14.00,2013-03-04 04:55:00,
2013-03-03 20:56:00,43.2,37.1,29.94,SW,225,3.4,5.8,79,0.00,,---,0.13,VWS V14.00,2013-03-04 04:56:00,
2013-03-03 20:59:00,43.0,36.6,29.94,SW,225,3.1,4.0,78,0.00,,---,0.13,VWS V14.00,2013-03-04 04:59:00,
2013-03-03 21:00:00,43.0,36.6,29.94,WSW,248,0.0,4.0,78,0.00,,---,0.13,VWS V14.00,2013-03-04 05:00:00,
2013-03-03 21:05:00,43.0,36.9,29.94,SW,225,0.0,3.8,79,0.00,,---,0.13,VWS V14.00,2013-03-04 05:05:00,
2013-03-03 21:10:00,43.0,36.9,29.94,SW,225,4.5,6.0,79,0.00,,---,0.13,VWS V14.00,2013-03-04 05:10:00,
2013-03-03 21:15:00,43.0,36.9,29.94,SW,225,4.3,4.5,79,0.00,,---,0.13,VWS V14.00,2013-03-04 05:15:00,
2013-03-03 21:20:00,43.0,36.9,29.94,SW,225,3.1,5.8,79,0.00,,---,0.13,VWS V14.00,2013-03-04 05:20:00,
2013-03-03 21:25:00,43.2,36.8,29.94,SW,225,4.0,5.8,78,0.00,,---,0.13,VWS V14.00,2013-03-04 05:25:00,
2013-03-03 21:26:00,43.2,36.8,29.94,SW,225,2.5,5.8,78,0.00,,---,0.13,VWS V14.00,2013-03-04 05:26:00,
2013-03-03 21:30:00,43.2,36.8,29.94,SW,225,3.6,5.8,78,0.00,,---,0.13,VWS V14.00,2013-03-04 05:30:00,
2013-03-03 21:31:00,43.2,36.8,29.94,SW,225,3.6,5.8,78,0.00,,---,0.13,VWS V14.00,2013-03-04 05:31:00,
2013-03-03 21:35:00,43.2,36.8,29.94,SW,225,2.5,4.5,78,0.00,,---,0.13,VWS V14.00,2013-03-04 05:35:00,
2013-03-03 21:36:00,43.2,36.8,29.94,SW,225,3.8,4.5,78,0.00,,---,0.13,VWS V14.00,2013-03-04 05:36:00,
2013-03-03 21:40:00,43.3,37.0,29.94,SW,225,0.0,4.9,78,0.00,,---,0.13,VWS V14.00,2013-03-04 05:40:00,
2013-03-03 21:41:00,43.3,37.0,29.94,SW,225,0.0,4.9,78,0.00,,---,0.13,VWS V14.00,2013-03-04 05:41:00,
2013-03-03 21:45:00,43.2,36.5,29.94,NW,315,0.0,2.5,77,0.00,,---,0.13,VWS V14.00,2013-03-04 05:45:00,
2013-03-03 21:46:00,43.2,36.5,29.94,NW,315,0.0,2.5,77,0.00,,---,0.13,VWS V14.00,2013-03-04 05:46:00,
2013-03-03 21:50:00,43.2,36.1,29.94,WNW,292,0.0,2.2,76,0.00,,---,0.13,VWS V14.00,2013-03-04 05:50:00,
2013-03-03 21:51:00,43.2,36.1,29.94,WNW,292,0.0,0.0,76,0.00,,---,0.13,VWS V14.00,2013-03-04 05:51:00,
2013-03-03 21:55:00,43.2,36.1,29.94,West,270,0.0,0.0,76,0.00,,---,0.13,VWS V14.00,2013-03-04 05:55:00,
2013-03-03 21:56:00,43.3,36.3,29.94,West,270,3.4,3.4,76,0.00,,---,0.13,VWS V14.00,2013-03-04 05:56:00,
2013-03-03 22:00:00,42.3,34.2,29.97,West,270,0.0,0.0,73,0.00,,---,0.13,VWS V14.00,2013-03-04 06:00:00,
2013-03-03 22:01:00,43.3,36.3,29.94,WSW,248,0.0,3.6,76,0.00,,---,0.13,VWS V14.00,2013-03-04 06:01:00,
2013-03-03 22:02:00,43.3,36.3,29.94,WSW,248,0.0,0.0,76,0.00,,---,0.13,VWS V14.00,2013-03-04 06:02:00,
2013-03-03 22:05:00,42.3,34.2,29.97,West,270,0.0,0.0,73,0.00,,---,0.13,VWS V14.00,2013-03-04 06:05:00,
2013-03-03 22:06:00,43.2,36.1,29.94,West,270,0.0,0.0,76,0.00,,---,0.13,VWS V14.00,2013-03-04 06:06:00,
2013-03-03 22:07:00,43.2,36.1,29.94,West,270,0.0,0.0,76,0.00,,---,0.13,VWS V14.00,2013-03-04 06:07:00,
2013-03-03 22:10:00,42.3,34.6,29.97,WSW,248,0.0,0.9,74,0.00,,---,0.13,VWS V14.00,2013-03-04 06:10:00,
2013-03-03 22:11:00,43.0,35.6,29.94,West,270,0.0,0.0,75,0.00,,---,0.13,VWS V14.00,2013-03-04 06:11:00,
2013-03-03 22:12:00,43.0,35.6,29.94,West,270,0.0,0.0,75,0.00,,---,0.13,VWS V14.00,2013-03-04 06:12:00,
2013-03-03 22:13:00,43.0,35.6,29.94,West,270,0.0,0.0,75,0.00,,---,0.13,VWS V14.00,2013-03-04 06:13:00,
2013-03-03 22:15:00,42.3,35.2,29.94,WSW,248,0.0,0.0,76,0.00,,---,0.13,VWS V14.00,2013-03-04 06:15:00,
2013-03-03 22:16:00,42.8,35.4,29.94,West,270,0.0,0.0,75,0.00,,---,0.13,VWS V14.00,2013-03-04 06:16:00,
2013-03-03 22:17:00,42.8,35.4,29.94,West,270,0.0,0.0,75,0.00,,---,0.13,VWS V14.00,2013-03-04 06:17:00,
2013-03-03 22:18:00,42.8,35.4,29.94,West,270,0.0,0.0,75,0.00,,---,0.13,VWS V14.00,2013-03-04 06:18:00,
2013-03-03 22:20:00,42.3,35.2,29.94,WSW,248,0.0,0.0,76,0.00,,---,0.13,VWS V14.00,2013-03-04 06:20:00,
2013-03-03 22:21:00,42.8,35.4,29.94,West,270,0.0,0.0,75,0.00,,---,0.13,VWS V14.00,2013-03-04 06:21:00,
2013-03-03 22:23:00,42.8,35.4,29.94,West,270,0.0,0.0,75,0.00,,---,0.13,VWS V14.00,2013-03-04 06:23:00,
2013-03-03 22:25:00,42.1,35.1,29.94,WSW,248,0.0,0.0,76,0.00,,---,0.13,VWS V14.00,2013-03-04 06:25:00,
2013-03-03 22:26:00,42.8,35.4,29.94,West,270,0.0,0.0,75,0.00,,---,0.13,VWS V14.00,2013-03-04 06:26:00,
2013-03-03 22:27:00,42.8,35.1,29.94,West,270,0.0,0.0,74,0.00,,---,0.13,VWS V14.00,2013-03-04 06:27:00,
2013-03-03 22:28:00,42.8,35.1,29.94,West,270,0.0,0.0,74,0.00,,---,0.13,VWS V14.00,2013-03-04 06:28:00,
2013-03-03 22:30:00,42.1,35.1,29.94,WSW,248,0.0,0.0,76,0.00,,---,0.13,VWS V14.00,2013-03-04 06:30:00,
2013-03-03 22:31:00,42.8,35.1,29.94,West,270,0.0,0.0,74,0.00,,---,0.13,VWS V14.00,2013-03-04 06:31:00,
2013-03-03 22:32:00,42.8,35.1,29.94,West,270,0.0,0.0,74,0.00,,---,0.13,VWS V14.00,2013-03-04 06:32:00,
2013-03-03 22:33:00,42.8,35.1,29.94,West,270,0.0,0.0,74,0.00,,---,0.13,VWS V14.00,2013-03-04 06:33:00,
2013-03-03 22:35:00,41.7,34.7,29.94,WSW,248,0.0,0.0,76,0.00,,---,0.13,VWS V14.00,2013-03-04 06:35:00,
2013-03-03 22:36:00,42.8,35.1,29.94,West,270,0.0,0.0,74,0.00,,---,0.13,VWS V14.00,2013-03-04 06:36:00,
2013-03-03 22:37:00,42.8,35.1,29.94,West,270,0.0,0.0,74,0.00,,---,0.13,VWS V14.00,2013-03-04 06:37:00,
2013-03-03 22:38:00,42.8,35.1,29.94,West,270,0.0,0.0,74,0.00,,---,0.13,VWS V14.00,2013-03-04 06:38:00,
2013-03-03 22:40:00,41.7,34.4,29.94,SW,225,0.0,0.0,75,0.00,,---,0.13,VWS V14.00,2013-03-04 06:40:00,
2013-03-03 22:41:00,42.6,34.9,29.94,West,270,0.0,0.0,74,0.00,,---,0.13,VWS V14.00,2013-03-04 06:41:00,
2013-03-03 22:42:00,42.6,34.9,29.94,West,270,0.0,0.0,74,0.00,,---,0.13,VWS V14.00,2013-03-04 06:42:00,
2013-03-03 22:43:00,42.6,34.9,29.94,West,270,0.0,0.0,74,0.00,,---,0.13,VWS V14.00,2013-03-04 06:43:00,
2013-03-03 22:45:00,41.7,34.7,29.94,SW,225,0.0,0.0,76,0.00,,---,0.13,VWS V14.00,2013-03-04 06:45:00,
2013-03-03 22:46:00,42.4,34.8,29.94,West,270,0.0,0.0,74,0.00,,---,0.13,VWS V14.00,2013-03-04 06:46:00,
2013-03-03 22:47:00,42.4,34.8,29.94,West,270,0.0,0.0,74,0.00,,---,0.13,VWS V14.00,2013-03-04 06:47:00,
2013-03-03 22:48:00,42.4,34.8,29.94,West,270,0.0,0.0,74,0.00,,---,0.13,VWS V14.00,2013-03-04 06:48:00,
2013-03-03 22:50:00,41.5,34.5,29.94,WSW,248,0.0,0.0,76,0.00,,---,0.13,VWS V14.00,2013-03-04 06:50:00,
2013-03-03 22:52:00,42.3,34.6,29.94,West,270,0.0,0.0,74,0.00,,---,0.13,VWS V14.00,2013-03-04 06:52:00,
2013-03-03 22:53:00,42.3,34.6,29.94,West,270,0.0,0.0,74,0.00,,---,0.13,VWS V14.00,2013-03-04 06:53:00,
2013-03-03 22:55:00,41.5,34.9,29.94,WSW,248,0.0,3.1,77,0.00,,---,0.13,VWS V14.00,2013-03-04 06:55:00,
2013-03-03 22:57:00,42.4,34.4,29.94,West,270,0.0,0.0,73,0.00,,---,0.13,VWS V14.00,2013-03-04 06:57:00,
2013-03-03 22:58:00,42.4,34.4,29.97,West,270,0.0,0.0,73,0.00,,---,0.13,VWS V14.00,2013-03-04 06:58:00,
2013-03-03 23:00:00,41.5,35.2,29.97,WSW,248,0.0,3.1,78,0.00,,---,0.00,VWS V14.00,2013-03-04 07:00:00,
2013-03-03 23:02:00,42.3,34.2,29.97,West,270,0.0,0.0,73,0.00,,---,0.13,VWS V14.00,2013-03-04 07:02:00,
2013-03-03 23:03:00,42.3,34.2,29.97,West,270,0.0,0.0,73,0.00,,---,0.13,VWS V14.00,2013-03-04 07:03:00,
2013-03-03 23:07:00,42.3,34.2,29.97,West,270,0.0,0.0,73,0.00,,---,0.13,VWS V14.00,2013-03-04 07:07:00,
2013-03-03 23:08:00,42.3,34.6,29.97,WSW,248,0.0,0.0,74,0.00,,---,0.13,VWS V14.00,2013-03-04 07:08:00,
2013-03-03 23:09:00,42.3,34.6,29.97,WSW,248,0.0,0.0,74,0.00,,---,0.13,VWS V14.00,2013-03-04 07:09:00,
2013-03-03 23:10:00,41.7,35.4,29.97,WSW,248,0.0,0.0,78,0.00,,---,0.00,VWS V14.00,2013-03-04 07:10:00,
2013-03-03 23:12:00,42.3,34.9,29.97,SW,225,0.0,0.0,75,0.00,,---,0.13,VWS V14.00,2013-03-04 07:12:00,
2013-03-03 23:13:00,42.3,34.9,29.94,SW,225,0.0,0.0,75,0.00,,---,0.13,VWS V14.00,2013-03-04 07:13:00,
2013-03-03 23:14:00,42.3,34.9,29.94,SW,225,0.0,0.0,75,0.00,,---,0.13,VWS V14.00,2013-03-04 07:14:00,
2013-03-03 23:15:00,41.5,34.9,29.94,West,270,0.0,0.0,77,0.00,,---,0.00,VWS V14.00,2013-03-04 07:15:00,
2013-03-03 23:17:00,42.3,35.2,29.94,WSW,248,0.0,0.0,76,0.00,,---,0.13,VWS V14.00,2013-03-04 07:17:00,
2013-03-03 23:18:00,42.3,35.2,29.94,WSW,248,0.0,0.0,76,0.00,,---,0.13,VWS V14.00,2013-03-04 07:18:00,
2013-03-03 23:19:00,42.3,35.2,29.94,WSW,248,0.0,0.0,76,0.00,,---,0.13,VWS V14.00,2013-03-04 07:19:00,
2013-03-03 23:20:00,41.5,34.9,29.94,West,270,0.0,0.0,77,0.00,,---,0.00,VWS V14.00,2013-03-04 07:20:00,
2013-03-03 23:22:00,42.3,35.2,29.94,WSW,248,0.0,0.0,76,0.00,,---,0.13,VWS V14.00,2013-03-04 07:22:00,
2013-03-03 23:23:00,42.3,35.2,29.94,WSW,248,0.0,0.0,76,0.00,,---,0.13,VWS V14.00,2013-03-04 07:23:00,
2013-03-03 23:24:00,42.3,35.2,29.94,WSW,248,0.0,0.0,76,0.00,,---,0.13,VWS V14.00,2013-03-04 07:24:00,
2013-03-03 23:25:00,42.3,35.2,29.94,WSW,248,0.0,0.0,76,0.00,,---,0.13,VWS V14.00,2013-03-04 07:25:00,
2013-03-03 23:27:00,42.1,35.1,29.94,WSW,248,0.0,0.0,76,0.00,,---,0.13,VWS V14.00,2013-03-04 07:27:00,
2013-03-03 23:29:00,42.1,35.1,29.94,WSW,248,0.0,0.0,76,0.00,,---,0.13,VWS V14.00,2013-03-04 07:29:00,
2013-03-03 23:30:00,42.1,35.1,29.94,WSW,248,0.0,0.0,76,0.00,,---,0.13,VWS V14.00,2013-03-04 07:30:00,
2013-03-03 23:32:00,41.9,34.9,29.94,WSW,248,0.0,0.0,76,0.00,,---,0.13,VWS V14.00,2013-03-04 07:32:00,
2013-03-03 23:34:00,41.9,34.9,29.94,WSW,248,0.0,0.0,76,0.00,,---,0.13,VWS V14.00,2013-03-04 07:34:00,
2013-03-03 23:35:00,41.7,34.7,29.94,WSW,248,0.0,0.0,76,0.00,,---,0.13,VWS V14.00,2013-03-04 07:35:00,
2013-03-03 23:37:00,41.7,34.4,29.94,WSW,248,0.0,0.0,75,0.00,,---,0.13,VWS V14.00,2013-03-04 07:37:00,
2013-03-03 23:39:00,41.7,34.4,29.94,WSW,248,0.0,0.0,75,0.00,,---,0.13,VWS V14.00,2013-03-04 07:39:00,
2013-03-03 23:40:00,41.7,34.4,29.94,WSW,248,0.0,0.0,75,0.00,,---,0.13,VWS V14.00,2013-03-04 07:40:00,
2013-03-03 23:42:00,41.7,34.7,29.94,SW,225,0.0,0.0,76,0.00,,---,0.13,VWS V14.00,2013-03-04 07:42:00,
2013-03-03 23:44:00,41.7,34.7,29.94,SW,225,0.0,0.0,76,0.00,,---,0.13,VWS V14.00,2013-03-04 07:44:00,
2013-03-03 23:45:00,41.7,34.7,29.94,SW,225,0.0,0.0,76,0.00,,---,0.13,VWS V14.00,2013-03-04 07:45:00,
2013-03-03 23:48:00,41.5,34.5,29.94,SW,225,0.0,0.0,76,0.00,,---,0.13,VWS V14.00,2013-03-04 07:48:00,
2013-03-03 23:49:00,41.5,34.5,29.94,WSW,248,0.0,0.0,76,0.00,,---,0.13,VWS V14.00,2013-03-04 07:49:00,
2013-03-03 23:50:00,41.5,34.5,29.94,WSW,248,0.0,0.0,76,0.00,,---,0.13,VWS V14.00,2013-03-04 07:50:00,
2013-03-03 23:51:00,41.5,34.5,29.94,WSW,248,0.0,0.0,76,0.00,,---,0.13,VWS V14.00,2013-03-04 07:51:00,
2013-03-03 23:53:00,41.5,34.9,29.94,WSW,248,0.0,0.0,77,0.00,,---,0.13,VWS V14.00,2013-03-04 07:53:00,
2013-03-03 23:54:00,41.5,34.9,29.94,SW,225,3.1,3.1,77,0.00,,---,0.13,VWS V14.00,2013-03-04 07:54:00,
2013-03-03 23:55:00,41.5,34.9,29.94,SW,225,0.0,3.1,77,0.00,,---,0.13,VWS V14.00,2013-03-04 07:55:00,
2013-03-03 23:56:00,41.5,34.9,29.94,SW,225,0.0,3.1,77,0.00,,---,0.13,VWS V14.00,2013-03-04 07:56:00,
2013-03-03 23:58:00,41.5,35.2,29.97,WSW,248,0.0,3.1,78,0.00,,---,0.13,VWS V14.00,2013-03-04 07:58:00,
2013-03-03 23:59:00,41.5,35.2,29.97,WSW,248,0.0,3.1,78,0.00,,---,0.13,VWS V14.00,2013-03-04 07:59:00,